Wetterdaten: Samstag, 24.04.2021
Datum Zeit Temp. Aussen Temp. o. S. Temp +5cm Feuchte Auss Luftdruck Regen Sonnenschein Regendauer Solar Windben Empfang
24.04.2021 00:00 8,5 C 7,2 C 5,0 C 72 % 1027,8 hPa 0,0 l/m 0 min 0 min 0 W/m 12,9 km/h (3 Bft) 100,00 %
24.04.2021 00:02 8,5 C 7,2 C 5,0 C 72 % 1027,8 hPa 0,0 l/m 0 min 0 min 0 W/m 3,2 km/h (1 Bft) 7,14 %
24.04.2021 00:04 8,5 C 7,2 C 5,0 C 73 % 1027,8 hPa 0,0 l/m 0 min 0 min 0 W/m 3,2 km/h (1 Bft) 75,76 %
24.04.2021 00:08 8,4 C 7,2 C 5,0 C 73 % 1027,8 hPa 0,0 l/m 0 min 0 min 0 W/m 3,2 km/h (1 Bft) 100,00 %
24.04.2021 00:10 8,4 C 7,2 C 5,0 C 73 % 1027,8 hPa 0,0 l/m 0 min 0 min 0 W/m 9,7 km/h (2 Bft) 100,00 %
24.04.2021 00:12 8,4 C 7,2 C 5,0 C 73 % 1027,8 hPa 0,0 l/m 0 min 0 min 0 W/m 6,4 km/h (2 Bft) 100,00 %
24.04.2021 00:14 8,4 C 7,2 C 5,0 C 73 % 1027,8 hPa 0,0 l/m 0 min 0 min 0 W/m 6,4 km/h (2 Bft) 97,87 %
24.04.2021 00:16 8,4 C 7,2 C 5,0 C 73 % 1027,8 hPa 0,0 l/m 0 min 0 min 0 W/m 6,4 km/h (2 Bft) 97,87 %
24.04.2021 00:18 8,3 C 7,2 C 5,0 C 73 % 1027,8 hPa 0,0 l/m 0 min 0 min 0 W/m 3,2 km/h (1 Bft) 100,00 %
24.04.2021 00:20 8,3 C 7,2 C 5,0 C 73 % 1027,9 hPa 0,0 l/m 0 min 0 min 0 W/m 3,2 km/h (1 Bft) 100,00 %
24.04.2021 00:22 8,3 C 7,2 C 5,0 C 73 % 1027,9 hPa 0,0 l/m 0 min 0 min 0 W/m 0,0 km/h (0 Bft) 97,87 %
24.04.2021 00:24 8,3 C 6,7 C 5,0 C 73 % 1027,8 hPa 0,0 l/m 0 min 0 min 0 W/m 6,4 km/h (2 Bft) 100,00 %
24.04.2021 00:26 8,2 C 6,7 C 4,5 C 73 % 1027,8 hPa 0,0 l/m 0 min 0 min 0 W/m 9,7 km/h (2 Bft) 100,00 %
24.04.2021 00:28 8,2 C 7,2 C 5,0 C 74 % 1027,8 hPa 0,0 l/m 0 min 0 min 0 W/m 6,4 km/h (2 Bft) 100,00 %
24.04.2021 00:30 8,1 C 7,2 C 5,0 C 74 % 1027,8 hPa 0,0 l/m 0 min 0 min 0 W/m 6,4 km/h (2 Bft) 97,87 %
24.04.2021 00:32 8,1 C 7,2 C 5,0 C 74 % 1027,8 hPa 0,0 l/m 0 min 0 min 0 W/m 16,1 km/h (3 Bft) 97,83 %
24.04.2021 00:34 8,1 C 7,2 C 5,0 C 74 % 1027,8 hPa 0,0 l/m 0 min 0 min 0 W/m 12,9 km/h (3 Bft) 97,87 %
24.04.2021 00:36 8,1 C 7,2 C 5,0 C 74 % 1027,9 hPa 0,0 l/m 0 min 0 min 0 W/m 3,2 km/h (1 Bft) 97,87 %
24.04.2021 00:38 8,1 C 7,2 C 4,5 C 74 % 1027,8 hPa 0,0 l/m 0 min 0 min 0 W/m 6,4 km/h (2 Bft) 95,74 %
24.04.2021 00:40 8,0 C 7,2 C 4,5 C 74 % 1027,8 hPa 0,0 l/m 0 min 0 min 0 W/m 6,4 km/h (2 Bft) 93,62 %
24.04.2021 00:42 8,0 C 7,2 C 4,5 C 74 % 1027,8 hPa 0,0 l/m 0 min 0 min 0 W/m 12,9 km/h (3 Bft) 97,87 %
24.04.2021 00:44 8,0 C 7,2 C 4,5 C 74 % 1027,9 hPa 0,0 l/m 0 min 0 min 0 W/m 9,7 km/h (2 Bft) 97,83 %
24.04.2021 00:46 8,0 C 7,2 C 4,5 C 74 % 1027,9 hPa 0,0 l/m 0 min 0 min 0 W/m 12,9 km/h (3 Bft) 97,87 %
24.04.2021 00:48 7,9 C 7,2 C 4,5 C 74 % 1027,9 hPa 0,0 l/m 0 min 0 min 0 W/m 12,9 km/h (3 Bft) 97,87 %
24.04.2021 00:50 7,9 C 7,2 C 4,5 C 74 % 1027,8 hPa 0,0 l/m 0 min 0 min 0 W/m 12,9 km/h (3 Bft) 95,74 %
24.04.2021 00:52 7,9 C 6,7 C 4,5 C 74 % 1027,9 hPa 0,0 l/m 0 min 0 min 0 W/m 9,7 km/h (2 Bft) 97,87 %
24.04.2021 00:54 7,9 C 6,7 C 4,5 C 74 % 1027,9 hPa 0,0 l/m 0 min 0 min 0 W/m 9,7 km/h (2 Bft) 97,87 %
24.04.2021 00:56 7,8 C 6,7 C 4,5 C 74 % 1027,9 hPa 0,0 l/m 0 min 0 min 0 W/m 12,9 km/h (3 Bft) 97,83 %
24.04.2021 00:58 7,8 C 6,7 C 4,5 C 74 % 1027,9 hPa 0,0 l/m 0 min 0 min 0 W/m 9,7 km/h (2 Bft) 95,74 %
24.04.2021 01:00 7,8 C 6,7 C 4,5 C 74 % 1027,9 hPa 0,0 l/m 0 min 0 min 0 W/m 16,1 km/h (3 Bft) 93,62 %
24.04.2021 01:02 7,7 C 6,7 C 4,5 C 75 % 1027,9 hPa 0,0 l/m 0 min 0 min 0 W/m 6,4 km/h (2 Bft) 95,74 %
24.04.2021 01:04 7,7 C 6,7 C 4,5 C 75 % 1027,9 hPa 0,0 l/m 0 min 0 min 0 W/m 9,7 km/h (2 Bft) 97,87 %
24.04.2021 01:06 7,6 C 6,7 C 4,5 C 75 % 1028,0 hPa 0,0 l/m 0 min 0 min 0 W/m 9,7 km/h (2 Bft) 97,87 %
24.04.2021 01:08 7,6 C 6,7 C 4,5 C 75 % 1028,0 hPa 0,0 l/m 0 min 0 min 0 W/m 9,7 km/h (2 Bft) 97,83 %
24.04.2021 01:10 7,6 C 6,7 C 4,5 C 75 % 1028,1 hPa 0,0 l/m 0 min 0 min 0 W/m 9,7 km/h (2 Bft) 97,87 %
24.04.2021 01:12 7,5 C 6,7 C 4,5 C 74 % 1028,1 hPa 0,0 l/m 0 min 0 min 0 W/m 19,3 km/h (3 Bft) 97,87 %
24.04.2021 01:14 7,5 C 6,7 C 4,5 C 75 % 1028,1 hPa 0,0 l/m 0 min 0 min 0 W/m 6,4 km/h (2 Bft) 93,62 %
24.04.2021 01:16 7,5 C 6,7 C 3,9 C 75 % 1028,1 hPa 0,0 l/m 0 min 0 min 0 W/m 9,7 km/h (2 Bft) 97,87 %
24.04.2021 01:18 7,4 C 6,7 C 3,9 C 75 % 1028,1 hPa 0,0 l/m 0 min 0 min 0 W/m 6,4 km/h (2 Bft) 97,87 %
24.04.2021 01:20 7,4 C 6,7 C 3,9 C 75 % 1028,1 hPa 0,0 l/m 0 min 0 min 0 W/m 6,4 km/h (2 Bft) 97,83 %
24.04.2021 01:22 7,4 C 6,1 C 3,9 C 75 % 1028,1 hPa 0,0 l/m 0 min 0 min 0 W/m 6,4 km/h (2 Bft) 96,23 %
24.04.2021 01:24 7,4 C 6,1 C 3,9 C 75 % 1028,2 hPa 0,0 l/m 0 min 0 min 0 W/m 6,4 km/h (2 Bft) 97,87 %
24.04.2021 01:26 7,3 C 6,1 C 3,9 C 75 % 1028,1 hPa 0,0 l/m 0 min 0 min 0 W/m 6,4 km/h (2 Bft) 97,87 %
24.04.2021 01:28 7,3 C 6,1 C 3,9 C 75 % 1028,1 hPa 0,0 l/m 0 min 0 min 0 W/m 6,4 km/h (2 Bft) 97,87 %
24.04.2021 01:30 7,3 C 6,1 C 3,9 C 75 % 1028,2 hPa 0,0 l/m 0 min 0 min 0 W/m 9,7 km/h (2 Bft) 97,87 %
24.04.2021 01:32 7,2 C 6,1 C 3,9 C 75 % 1028,1 hPa 0,0 l/m 0 min 0 min 0 W/m 6,4 km/h (2 Bft) 95,65 %
24.04.2021 01:34 7,1 C 6,1 C 3,9 C 75 % 1028,1 hPa 0,0 l/m 0 min 0 min 0 W/m 6,4 km/h (2 Bft) 97,87 %
24.04.2021 01:36 7,1 C 6,1 C 3,9 C 75 % 1028,1 hPa 0,0 l/m 0 min 0 min 0 W/m 6,4 km/h (2 Bft) 95,74 %
24.04.2021 01:38 7,1 C 6,1 C 3,9 C 75 % 1028,1 hPa 0,0 l/m 0 min 0 min 0 W/m 3,2 km/h (1 Bft) 95,74 %
24.04.2021 01:40 7,1 C 6,1 C 3,9 C 75 % 1028,1 hPa 0,0 l/m 0 min 0 min 0 W/m 6,4 km/h (2 Bft) 93,62 %
24.04.2021 01:42 7,0 C 6,1 C 3,9 C 75 % 1028,1 hPa 0,0 l/m 0 min 0 min 0 W/m 9,7 km/h (2 Bft) 93,62 %
24.04.2021 01:44 7,0 C 6,1 C 3,9 C 76 % 1028,1 hPa 0,0 l/m 0 min 0 min 0 W/m 9,7 km/h (2 Bft) 95,65 %
24.04.2021 01:46 7,0 C 6,1 C 3,4 C 76 % 1028,1 hPa 0,0 l/m 0 min 0 min 0 W/m 6,4 km/h (2 Bft) 95,74 %
24.04.2021 01:48 6,9 C 5,6 C 3,4 C 76 % 1028,1 hPa 0,0 l/m 0 min 0 min 0 W/m 6,4 km/h (2 Bft) 95,74 %
24.04.2021 01:50 6,9 C 5,6 C 3,4 C 76 % 1028,1 hPa 0,0 l/m 0 min 0 min 0 W/m 3,2 km/h (1 Bft) 95,74 %
24.04.2021 01:52 6,9 C 5,6 C 3,4 C 76 % 1028,1 hPa 0,0 l/m 0 min 0 min 0 W/m 3,2 km/h (1 Bft) 95,74 %
24.04.2021 01:54 6,8 C 5,6 C 3,4 C 76 % 1028,1 hPa 0,0 l/m 0 min 0 min 0 W/m 6,4 km/h (2 Bft) 93,62 %
24.04.2021 01:56 6,8 C 5,6 C 3,4 C 76 % 1028,2 hPa 0,0 l/m 0 min 0 min 0 W/m 6,4 km/h (2 Bft) 93,48 %
24.04.2021 01:58 6,7 C 5,6 C 3,4 C 76 % 1028,2 hPa 0,0 l/m 0 min 0 min 0 W/m 6,4 km/h (2 Bft) 95,74 %
24.04.2021 02:00 6,7 C 5,6 C 3,4 C 76 % 1028,2 hPa 0,0 l/m 0 min 0 min 0 W/m 3,2 km/h (1 Bft) 93,62 %
24.04.2021 02:02 6,6 C 5,6 C 3,4 C 76 % 1028,1 hPa 0,0 l/m 0 min 0 min 0 W/m 3,2 km/h (1 Bft) 95,74 %
24.04.2021 02:04 6,6 C 5,6 C 3,4 C 77 % 1028,1 hPa 0,0 l/m 0 min 0 min 0 W/m 6,4 km/h (2 Bft) 93,62 %
24.04.2021 02:06 6,6 C 5,6 C 3,4 C 77 % 1028,1 hPa 0,0 l/m 0 min 0 min 0 W/m 6,4 km/h (2 Bft) 95,74 %
24.04.2021 02:08 6,5 C 5,6 C 3,4 C 77 % 1028,1 hPa 0,0 l/m 0 min 0 min 0 W/m 6,4 km/h (2 Bft) 54,35 %
24.04.2021 02:10 6,5 C 5,6 C 3,4 C 77 % 1028,1 hPa 0,0 l/m 0 min 0 min 0 W/m 3,2 km/h (1 Bft) 95,74 %
24.04.2021 02:12 6,5 C 5,6 C 3,4 C 77 % 1028,1 hPa 0,0 l/m 0 min 0 min 0 W/m 3,2 km/h (1 Bft) 93,62 %
24.04.2021 02:14 6,5 C 5,6 C 3,4 C 77 % 1028,1 hPa 0,0 l/m 0 min 0 min 0 W/m 3,2 km/h (1 Bft) 95,74 %
24.04.2021 02:16 6,4 C 5,6 C 3,4 C 77 % 1028,1 hPa 0,0 l/m 0 min 0 min 0 W/m 6,4 km/h (2 Bft) 95,74 %
24.04.2021 02:18 6,4 C 5,6 C 3,4 C 77 % 1028,1 hPa 0,0 l/m 0 min 0 min 0 W/m 3,2 km/h (1 Bft) 95,74 %
24.04.2021 02:20 6,4 C 5,0 C 2,8 C 77 % 1028,1 hPa 0,0 l/m 0 min 0 min 0 W/m 3,2 km/h (1 Bft) 93,48 %
24.04.2021 02:22 6,4 C 5,0 C 2,8 C 77 % 1028,1 hPa 0,0 l/m 0 min 0 min 0 W/m 3,2 km/h (1 Bft) 95,74 %
24.04.2021 02:24 6,4 C 5,0 C 2,8 C 77 % 1028,1 hPa 0,0 l/m 0 min 0 min 0 W/m 3,2 km/h (1 Bft) 95,74 %
24.04.2021 02:26 6,3 C 5,0 C 2,8 C 77 % 1028,1 hPa 0,0 l/m 0 min 0 min 0 W/m 0,0 km/h (0 Bft) 95,74 %
24.04.2021 02:28 6,3 C 5,0 C 2,8 C 77 % 1028,1 hPa 0,0 l/m 0 min 0 min 0 W/m 0,0 km/h (0 Bft) 89,36 %
24.04.2021 02:30 6,3 C 5,0 C 2,8 C 77 % 1028,1 hPa 0,0 l/m 0 min 0 min 0 W/m 3,2 km/h (1 Bft) 91,49 %
24.04.2021 02:32 6,2 C 5,0 C 2,8 C 77 % 1028,1 hPa 0,0 l/m 0 min 0 min 0 W/m 0,0 km/h (0 Bft) 93,48 %
24.04.2021 02:34 6,2 C 5,0 C 2,8 C 78 % 1028,0 hPa 0,0 l/m 0 min 0 min 0 W/m 0,0 km/h (0 Bft) 93,62 %
24.04.2021 02:36 6,1 C 5,0 C 2,8 C 78 % 1028,0 hPa 0,0 l/m 0 min 0 min 0 W/m 0,0 km/h (0 Bft) 95,74 %
24.04.2021 02:38 6,1 C 5,0 C 2,8 C 78 % 1028,0 hPa 0,0 l/m 0 min 0 min 0 W/m 3,2 km/h (1 Bft) 95,74 %
24.04.2021 02:40 6,1 C 4,4 C 2,8 C 78 % 1028,0 hPa 0,0 l/m 0 min 0 min 0 W/m 0,0 km/h (0 Bft) 97,87 %
24.04.2021 02:42 6,0 C 4,4 C 2,8 C 78 % 1028,0 hPa 0,0 l/m 0 min 0 min 0 W/m 3,2 km/h (1 Bft) 97,87 %
24.04.2021 02:44 6,0 C 4,4 C 2,8 C 78 % 1028,0 hPa 0,0 l/m 0 min 0 min 0 W/m 3,2 km/h (1 Bft) 95,65 %
24.04.2021 02:46 6,0 C 4,4 C 2,8 C 78 % 1028,0 hPa 0,0 l/m 0 min 0 min 0 W/m 6,4 km/h (2 Bft) 93,62 %
24.04.2021 02:48 6,0 C 4,4 C 2,8 C 78 % 1028,0 hPa 0,0 l/m 0 min 0 min 0 W/m 3,2 km/h (1 Bft) 97,87 %
24.04.2021 02:50 5,9 C 4,4 C 2,3 C 78 % 1028,0 hPa 0,0 l/m 0 min 0 min 0 W/m 3,2 km/h (1 Bft) 95,74 %
24.04.2021 02:52 5,9 C 4,4 C 2,3 C 78 % 1028,0 hPa 0,0 l/m 0 min 0 min 0 W/m 0,0 km/h (0 Bft) 97,87 %
24.04.2021 02:54 5,8 C 4,4 C 2,3 C 79 % 1028,0 hPa 0,0 l/m 0 min 0 min 0 W/m 6,4 km/h (2 Bft) 93,62 %
24.04.2021 02:56 5,8 C 4,4 C 2,3 C 79 % 1028,0 hPa 0,0 l/m 0 min 0 min 0 W/m 3,2 km/h (1 Bft) 95,65 %
24.04.2021 02:58 5,8 C 4,4 C 2,3 C 79 % 1028,0 hPa 0,0 l/m 0 min 0 min 0 W/m 6,4 km/h (2 Bft) 97,87 %
24.04.2021 03:00 5,8 C 4,4 C 2,3 C 79 % 1028,0 hPa 0,0 l/m 0 min 0 min 0 W/m 6,4 km/h (2 Bft) 100,00 %
24.04.2021 03:02 5,7 C 4,4 C 2,3 C 79 % 1028,1 hPa 0,0 l/m 0 min 0 min 0 W/m 6,4 km/h (2 Bft) 100,00 %
24.04.2021 03:04 5,6 C 4,4 C 2,3 C 79 % 1028,0 hPa 0,0 l/m 0 min 0 min 0 W/m 6,4 km/h (2 Bft) 95,74 %
24.04.2021 03:06 5,6 C 4,4 C 2,3 C 80 % 1028,0 hPa 0,0 l/m 0 min 0 min 0 W/m 3,2 km/h (1 Bft) 97,83 %
24.04.2021 03:08 5,6 C 4,4 C 2,3 C 80 % 1028,0 hPa 0,0 l/m 0 min 0 min 0 W/m 6,4 km/h (2 Bft) 100,00 %
24.04.2021 03:10 5,6 C 4,4 C 2,3 C 80 % 1028,0 hPa 0,0 l/m 0 min 0 min 0 W/m 0,0 km/h (0 Bft) 75,00 %
24.04.2021 03:12 5,5 C 4,4 C 2,3 C 80 % 1028,0 hPa 0,0 l/m 0 min 0 min 0 W/m 6,4 km/h (2 Bft) 80,36 %
24.04.2021 03:14 5,5 C 4,4 C 2,3 C 80 % 1028,0 hPa 0,0 l/m 0 min 0 min 0 W/m 0,0 km/h (0 Bft) 97,14 %
24.04.2021 03:16 5,5 C 4,4 C 2,3 C 80 % 1028,0 hPa 0,0 l/m 0 min 0 min 0 W/m 3,2 km/h (1 Bft) 100,00 %
24.04.2021 03:18 5,5 C 4,4 C 2,3 C 80 % 1028,0 hPa 0,0 l/m 0 min 0 min 0 W/m 9,7 km/h (2 Bft) 100,00 %
24.04.2021 03:20 5,4 C 4,4 C 2,3 C 81 % 1028,0 hPa 0,0 l/m 0 min 0 min 0 W/m 6,4 km/h (2 Bft) 100,00 %
24.04.2021 03:22 5,4 C 4,4 C 2,3 C 81 % 1028,0 hPa 0,0 l/m 0 min 0 min 0 W/m 3,2 km/h (1 Bft) 100,00 %
24.04.2021 03:24 5,4 C 4,4 C 2,3 C 81 % 1028,0 hPa 0,0 l/m 0 min 0 min 0 W/m 3,2 km/h (1 Bft) 100,00 %
24.04.2021 03:26 5,4 C 4,4 C 2,3 C 81 % 1028,0 hPa 0,0 l/m 0 min 0 min 0 W/m 3,2 km/h (1 Bft) 100,00 %
24.04.2021 03:28 5,4 C 4,4 C 2,3 C 81 % 1028,0 hPa 0,0 l/m 0 min 0 min 0 W/m 6,4 km/h (2 Bft) 100,00 %
24.04.2021 03:30 5,3 C 4,4 C 2,3 C 81 % 1028,1 hPa 0,0 l/m 0 min 0 min 0 W/m 6,4 km/h (2 Bft) 100,00 %
24.04.2021 03:32 5,3 C 4,4 C 2,3 C 81 % 1028,0 hPa 0,0 l/m 0 min 0 min 0 W/m 6,4 km/h (2 Bft) 100,00 %
24.04.2021 03:34 5,3 C 4,4 C 2,3 C 81 % 1028,0 hPa 0,0 l/m 0 min 0 min 0 W/m 3,2 km/h (1 Bft) 100,00 %
24.04.2021 03:36 5,3 C 4,4 C 2,3 C 81 % 1028,0 hPa 0,0 l/m 0 min 0 min 0 W/m 3,2 km/h (1 Bft) 100,00 %
24.04.2021 03:38 5,3 C 4,4 C 2,3 C 81 % 1028,0 hPa 0,0 l/m 0 min 0 min 0 W/m 3,2 km/h (1 Bft) 100,00 %
24.04.2021 03:40 5,2 C 4,4 C 2,3 C 81 % 1028,0 hPa 0,0 l/m 0 min 0 min 0 W/m 3,2 km/h (1 Bft) 100,00 %
24.04.2021 03:42 5,2 C 3,9 C 2,3 C 81 % 1027,9 hPa 0,0 l/m 0 min 0 min 0 W/m 6,4 km/h (2 Bft) 100,00 %
24.04.2021 03:44 5,1 C 3,9 C 2,3 C 81 % 1027,9 hPa 0,0 l/m 0 min 0 min 0 W/m 6,4 km/h (2 Bft) 100,00 %
24.04.2021 03:46 5,1 C 3,9 C 2,3 C 81 % 1027,9 hPa 0,0 l/m 0 min 0 min 0 W/m 3,2 km/h (1 Bft) 100,00 %
24.04.2021 03:48 5,1 C 3,9 C 2,3 C 81 % 1027,9 hPa 0,0 l/m 0 min 0 min 0 W/m 6,4 km/h (2 Bft) 95,74 %
24.04.2021 03:50 5,1 C 3,9 C 2,3 C 81 % 1027,9 hPa 0,0 l/m 0 min 0 min 0 W/m 3,2 km/h (1 Bft) 100,00 %
24.04.2021 03:52 5,0 C 3,9 C 2,3 C 81 % 1028,0 hPa 0,0 l/m 0 min 0 min 0 W/m 6,4 km/h (2 Bft) 97,87 %
24.04.2021 03:54 5,0 C 3,9 C 2,3 C 81 % 1028,0 hPa 0,0 l/m 0 min 0 min 0 W/m 6,4 km/h (2 Bft) 97,87 %
24.04.2021 03:56 5,0 C 3,9 C 2,3 C 81 % 1028,0 hPa 0,0 l/m 0 min 0 min 0 W/m 6,4 km/h (2 Bft) 100,00 %
24.04.2021 03:58 5,0 C 3,9 C 2,3 C 81 % 1028,0 hPa 0,0 l/m 0 min 0 min 0 W/m 0,0 km/h (0 Bft) 100,00 %
24.04.2021 04:00 5,0 C 3,9 C 2,3 C 81 % 1027,9 hPa 0,0 l/m 0 min 0 min 0 W/m 3,2 km/h (1 Bft) 100,00 %
24.04.2021 04:02 4,9 C 3,9 C 2,3 C 81 % 1027,9 hPa 0,0 l/m 0 min 0 min 0 W/m 0,0 km/h (0 Bft) 100,00 %
24.04.2021 04:04 4,9 C 3,9 C 2,3 C 81 % 1028,0 hPa 0,0 l/m 0 min 0 min 0 W/m 6,4 km/h (2 Bft) 100,00 %
24.04.2021 04:06 4,9 C 3,9 C 2,3 C 81 % 1028,0 hPa 0,0 l/m 0 min 0 min 0 W/m 0,0 km/h (0 Bft) 100,00 %
24.04.2021 04:08 4,9 C 3,9 C 1,7 C 81 % 1028,0 hPa 0,0 l/m 0 min 0 min 0 W/m 3,2 km/h (1 Bft) 97,87 %
24.04.2021 04:10 4,9 C 3,9 C 1,7 C 81 % 1028,0 hPa 0,0 l/m 0 min 0 min 0 W/m 3,2 km/h (1 Bft) 97,87 %
24.04.2021 04:12 4,8 C 3,9 C 1,7 C 81 % 1028,0 hPa 0,0 l/m 0 min 0 min 0 W/m 0,0 km/h (0 Bft) 95,74 %
24.04.2021 04:14 4,8 C 3,9 C 1,7 C 81 % 1028,0 hPa 0,0 l/m 0 min 0 min 0 W/m 0,0 km/h (0 Bft) 97,87 %
24.04.2021 04:16 4,8 C 3,3 C 1,7 C 81 % 1028,0 hPa 0,0 l/m 0 min 0 min 0 W/m 0,0 km/h (0 Bft) 100,00 %
24.04.2021 04:18 4,8 C 3,3 C 1,7 C 81 % 1028,0 hPa 0,0 l/m 0 min 0 min 0 W/m 3,2 km/h (1 Bft) 100,00 %
24.04.2021 04:20 4,7 C 3,3 C 1,7 C 81 % 1027,9 hPa 0,0 l/m 0 min 0 min 0 W/m 6,4 km/h (2 Bft) 97,83 %
24.04.2021 04:22 4,6 C 3,3 C 1,7 C 81 % 1027,9 hPa 0,0 l/m 0 min 0 min 0 W/m 3,2 km/h (1 Bft) 97,87 %
24.04.2021 04:24 4,6 C 3,3 C 1,7 C 81 % 1027,9 hPa 0,0 l/m 0 min 0 min 0 W/m 3,2 km/h (1 Bft) 97,87 %
24.04.2021 04:26 4,6 C 3,3 C 1,7 C 81 % 1027,9 hPa 0,0 l/m 0 min 0 min 0 W/m 0,0 km/h (0 Bft) 95,74 %
24.04.2021 04:28 4,6 C 3,3 C 1,7 C 81 % 1027,9 hPa 0,0 l/m 0 min 0 min 0 W/m 3,2 km/h (1 Bft) 97,87 %
24.04.2021 04:30 4,5 C 3,3 C 1,1 C 81 % 1027,9 hPa 0,0 l/m 0 min 0 min 0 W/m 3,2 km/h (1 Bft) 97,87 %
24.04.2021 04:32 4,5 C 3,3 C 1,1 C 81 % 1027,9 hPa 0,0 l/m 0 min 0 min 0 W/m 0,0 km/h (0 Bft) 95,74 %
24.04.2021 04:34 4,5 C 3,3 C 1,1 C 81 % 1027,9 hPa 0,0 l/m 0 min 0 min 0 W/m 0,0 km/h (0 Bft) 97,83 %
24.04.2021 04:36 4,5 C 3,3 C 1,1 C 81 % 1028,0 hPa 0,0 l/m 0 min 0 min 0 W/m 6,4 km/h (2 Bft) 95,74 %
24.04.2021 04:38 4,4 C 3,3 C 1,1 C 81 % 1027,9 hPa 0,0 l/m 0 min 0 min 0 W/m 3,2 km/h (1 Bft) 97,87 %
24.04.2021 04:40 4,4 C 3,3 C 1,1 C 81 % 1027,9 hPa 0,0 l/m 0 min 0 min 0 W/m 3,2 km/h (1 Bft) 93,62 %
24.04.2021 04:42 4,4 C 3,3 C 1,1 C 81 % 1027,9 hPa 0,0 l/m 0 min 0 min 0 W/m 0,0 km/h (0 Bft) 95,74 %
24.04.2021 04:44 4,3 C 3,3 C 1,1 C 81 % 1027,9 hPa 0,0 l/m 0 min 0 min 0 W/m 0,0 km/h (0 Bft) 95,65 %
24.04.2021 04:46 4,3 C 3,3 C 1,1 C 81 % 1027,9 hPa 0,0 l/m 0 min 0 min 0 W/m 0,0 km/h (0 Bft) 97,87 %
24.04.2021 04:48 4,3 C 3,3 C 1,1 C 81 % 1027,9 hPa 0,0 l/m 0 min 0 min 0 W/m 3,2 km/h (1 Bft) 95,74 %
24.04.2021 04:50 4,3 C 3,3 C 1,1 C 81 % 1027,9 hPa 0,0 l/m 0 min 0 min 0 W/m 0,0 km/h (0 Bft) 97,87 %
24.04.2021 04:52 4,3 C 3,3 C 1,1 C 81 % 1027,9 hPa 0,0 l/m 0 min 0 min 0 W/m 3,2 km/h (1 Bft) 100,00 %
24.04.2021 04:54 4,2 C 3,3 C 1,1 C 81 % 1027,9 hPa 0,0 l/m 0 min 0 min 0 W/m 0,0 km/h (0 Bft) 100,00 %
24.04.2021 04:56 4,1 C 3,3 C 1,1 C 81 % 1027,9 hPa 0,0 l/m 0 min 0 min 0 W/m 0,0 km/h (0 Bft) 95,65 %
24.04.2021 04:58 4,1 C 3,3 C 1,1 C 81 % 1027,9 hPa 0,0 l/m 0 min 0 min 0 W/m 0,0 km/h (0 Bft) 100,00 %
24.04.2021 05:00 4,1 C 3,3 C 1,1 C 81 % 1028,0 hPa 0,0 l/m 0 min 0 min 0 W/m 3,2 km/h (1 Bft) 100,00 %
24.04.2021 05:02 4,1 C 3,3 C 1,1 C 81 % 1027,9 hPa 0,0 l/m 0 min 0 min 0 W/m 3,2 km/h (1 Bft) 100,00 %
24.04.2021 05:04 4,0 C 2,8 C 1,1 C 81 % 1027,9 hPa 0,0 l/m 0 min 0 min 0 W/m 3,2 km/h (1 Bft) 100,00 %
24.04.2021 05:06 4,0 C 3,3 C 1,1 C 81 % 1027,9 hPa 0,0 l/m 0 min 0 min 0 W/m 6,4 km/h (2 Bft) 100,00 %
24.04.2021 05:08 4,0 C 3,3 C 1,1 C 80 % 1027,9 hPa 0,0 l/m 0 min 0 min 0 W/m 3,2 km/h (1 Bft) 100,00 %
24.04.2021 05:10 4,0 C 3,3 C 1,1 C 81 % 1027,9 hPa 0,0 l/m 0 min 0 min 0 W/m 3,2 km/h (1 Bft) 100,00 %
24.04.2021 05:12 4,0 C 3,3 C 1,1 C 80 % 1027,9 hPa 0,0 l/m 0 min 0 min 0 W/m 3,2 km/h (1 Bft) 100,00 %
24.04.2021 05:14 3,9 C 3,3 C 1,1 C 80 % 1027,9 hPa 0,0 l/m 0 min 0 min 0 W/m 3,2 km/h (1 Bft) 100,00 %
24.04.2021 05:16 3,9 C 3,3 C 1,1 C 80 % 1027,8 hPa 0,0 l/m 0 min 0 min 0 W/m 3,2 km/h (1 Bft) 100,00 %
24.04.2021 05:18 3,9 C 3,3 C 1,1 C 80 % 1027,8 hPa 0,0 l/m 0 min 0 min 0 W/m 3,2 km/h (1 Bft) 100,00 %
24.04.2021 05:20 3,9 C 3,3 C 1,1 C 80 % 1027,8 hPa 0,0 l/m 0 min 0 min 0 W/m 3,2 km/h (1 Bft) 100,00 %
24.04.2021 05:22 3,9 C 3,3 C 1,1 C 80 % 1027,9 hPa 0,0 l/m 0 min 0 min 0 W/m 3,2 km/h (1 Bft) 100,00 %
24.04.2021 05:24 3,8 C 3,3 C 1,1 C 80 % 1027,9 hPa 0,0 l/m 0 min 0 min 0 W/m 6,4 km/h (2 Bft) 100,00 %
24.04.2021 05:26 3,8 C 3,3 C 1,1 C 80 % 1027,9 hPa 0,0 l/m 0 min 0 min 0 W/m 3,2 km/h (1 Bft) 100,00 %
24.04.2021 05:28 3,8 C 3,3 C 1,1 C 80 % 1027,9 hPa 0,0 l/m 0 min 0 min 0 W/m 3,2 km/h (1 Bft) 100,00 %
24.04.2021 05:30 3,8 C 3,3 C 1,1 C 80 % 1027,9 hPa 0,0 l/m 0 min 0 min 0 W/m 6,4 km/h (2 Bft) 100,00 %
24.04.2021 05:32 3,8 C 3,3 C 1,1 C 80 % 1027,9 hPa 0,0 l/m 0 min 0 min 0 W/m 3,2 km/h (1 Bft) 97,83 %
24.04.2021 05:34 3,8 C 3,3 C 1,1 C 80 % 1027,9 hPa 0,0 l/m 0 min 0 min 0 W/m 3,2 km/h (1 Bft) 97,87 %
24.04.2021 05:36 3,8 C 3,3 C 1,1 C 80 % 1027,9 hPa 0,0 l/m 0 min 0 min 0 W/m 9,7 km/h (2 Bft) 97,87 %
24.04.2021 05:38 3,9 C 3,3 C 1,1 C 80 % 1027,9 hPa 0,0 l/m 0 min 0 min 0 W/m 6,4 km/h (2 Bft) 97,87 %
24.04.2021 05:40 3,9 C 3,3 C 1,1 C 80 % 1028,0 hPa 0,0 l/m 0 min 0 min 0 W/m 6,4 km/h (2 Bft) 97,87 %
24.04.2021 05:42 3,9 C 3,3 C 1,1 C 79 % 1027,9 hPa 0,0 l/m 0 min 0 min 0 W/m 9,7 km/h (2 Bft) 97,87 %
24.04.2021 05:44 3,9 C 3,3 C 1,1 C 79 % 1027,9 hPa 0,0 l/m 0 min 0 min 0 W/m 6,4 km/h (2 Bft) 95,65 %
24.04.2021 05:46 3,9 C 3,3 C 1,1 C 79 % 1027,9 hPa 0,0 l/m 0 min 0 min 0 W/m 6,4 km/h (2 Bft) 95,74 %
24.04.2021 05:48 3,9 C 3,3 C 1,1 C 79 % 1028,0 hPa 0,0 l/m 0 min 0 min 0 W/m 9,7 km/h (2 Bft) 97,87 %
24.04.2021 05:50 3,9 C 3,3 C 1,1 C 79 % 1028,0 hPa 0,0 l/m 0 min 0 min 0 W/m 9,7 km/h (2 Bft) 97,87 %
24.04.2021 05:52 3,9 C 3,3 C 1,1 C 79 % 1027,9 hPa 0,0 l/m 0 min 0 min 0 W/m 6,4 km/h (2 Bft) 97,87 %
24.04.2021 05:54 4,0 C 3,3 C 1,1 C 80 % 1028,0 hPa 0,0 l/m 0 min 0 min 0 W/m 6,4 km/h (2 Bft) 97,87 %
24.04.2021 05:56 4,0 C 3,3 C 1,1 C 80 % 1028,0 hPa 0,0 l/m 0 min 0 min 0 W/m 3,2 km/h (1 Bft) 82,61 %
24.04.2021 05:58 4,0 C 3,3 C 1,1 C 80 % 1028,0 hPa 0,0 l/m 0 min 0 min 0 W/m 3,2 km/h (1 Bft) 68,29 %
24.04.2021 06:00 4,0 C 3,3 C 1,1 C 80 % 1028,0 hPa 0,0 l/m 0 min 0 min 0 W/m 6,4 km/h (2 Bft) 95,74 %
24.04.2021 06:02 4,0 C 3,3 C 1,1 C 80 % 1028,0 hPa 0,0 l/m 0 min 0 min 0 W/m 6,4 km/h (2 Bft) 93,62 %
24.04.2021 06:04 4,0 C 3,3 C 1,1 C 80 % 1028,0 hPa 0,0 l/m 0 min 0 min 0 W/m 9,7 km/h (2 Bft) 97,87 %
24.04.2021 06:08 4,0 C 3,3 C 1,1 C 80 % 1028,0 hPa 0,0 l/m 0 min 0 min 0 W/m 9,7 km/h (2 Bft) 97,85 %
24.04.2021 06:10 4,0 C 3,3 C 1,1 C 80 % 1028,0 hPa 0,0 l/m 0 min 0 min 0 W/m 9,7 km/h (2 Bft) 95,74 %
24.04.2021 06:12 4,0 C 3,3 C 1,1 C 80 % 1028,1 hPa 0,0 l/m 0 min 0 min 0 W/m 6,4 km/h (2 Bft) 95,74 %
24.04.2021 06:14 3,9 C 3,3 C 1,1 C 81 % 1028,1 hPa 0,0 l/m 0 min 0 min 0 W/m 9,7 km/h (2 Bft) 95,74 %
24.04.2021 06:16 3,9 C 3,3 C 1,1 C 81 % 1028,1 hPa 0,0 l/m 0 min 0 min 0 W/m 6,4 km/h (2 Bft) 95,74 %
24.04.2021 06:18 3,9 C 3,3 C 1,1 C 81 % 1028,1 hPa 0,0 l/m 0 min 0 min 0 W/m 6,4 km/h (2 Bft) 93,62 %
24.04.2021 06:20 3,9 C 3,3 C 1,1 C 81 % 1028,1 hPa 0,0 l/m 0 min 0 min 0 W/m 6,4 km/h (2 Bft) 95,65 %
24.04.2021 06:22 3,9 C 3,3 C 1,1 C 81 % 1028,1 hPa 0,0 l/m 0 min 0 min 0 W/m 3,2 km/h (1 Bft) 95,74 %
24.04.2021 06:24 3,9 C 2,8 C 1,1 C 81 % 1028,1 hPa 0,0 l/m 0 min 0 min 0 W/m 6,4 km/h (2 Bft) 91,49 %
24.04.2021 06:26 3,9 C 3,3 C 1,1 C 81 % 1028,2 hPa 0,0 l/m 0 min 0 min 5 W/m 3,2 km/h (1 Bft) 95,74 %
24.04.2021 06:28 3,9 C 2,8 C 1,1 C 81 % 1028,2 hPa 0,0 l/m 0 min 0 min 5 W/m 3,2 km/h (1 Bft) 95,74 %
24.04.2021 06:30 3,9 C 2,8 C 1,1 C 81 % 1028,2 hPa 0,0 l/m 0 min 0 min 7 W/m 6,4 km/h (2 Bft) 95,65 %
24.04.2021 06:32 3,8 C 2,8 C 0,6 C 81 % 1028,2 hPa 0,0 l/m 0 min 0 min 8 W/m 3,2 km/h (1 Bft) 95,74 %
24.04.2021 06:34 3,8 C 2,8 C 0,6 C 81 % 1028,2 hPa 0,0 l/m 0 min 0 min 9 W/m 6,4 km/h (2 Bft) 97,87 %
24.04.2021 06:36 3,8 C 2,8 C 0,6 C 82 % 1028,2 hPa 0,0 l/m 0 min 0 min 11 W/m 0,0 km/h (0 Bft) 97,87 %
24.04.2021 06:38 3,8 C 2,8 C 0,6 C 82 % 1028,2 hPa 0,0 l/m 0 min 0 min 12 W/m 9,7 km/h (2 Bft) 97,87 %
24.04.2021 06:40 3,8 C 2,8 C 0,6 C 82 % 1028,3 hPa 0,0 l/m 0 min 0 min 14 W/m 6,4 km/h (2 Bft) 93,62 %
24.04.2021 06:42 3,7 C 2,8 C 0,6 C 82 % 1028,3 hPa 0,0 l/m 0 min 0 min 17 W/m 6,4 km/h (2 Bft) 97,83 %
24.04.2021 06:44 3,7 C 2,8 C 1,1 C 82 % 1028,3 hPa 0,0 l/m 0 min 0 min 20 W/m 3,2 km/h (1 Bft) 100,00 %
24.04.2021 06:46 3,7 C 2,8 C 1,1 C 82 % 1028,2 hPa 0,0 l/m 0 min 0 min 23 W/m 3,2 km/h (1 Bft) 100,00 %
24.04.2021 06:48 3,7 C 2,8 C 1,1 C 82 % 1028,2 hPa 0,0 l/m 0 min 0 min 25 W/m 0,0 km/h (0 Bft) 97,87 %
24.04.2021 06:50 3,7 C 2,8 C 1,1 C 82 % 1028,2 hPa 0,0 l/m 0 min 0 min 28 W/m 6,4 km/h (2 Bft) 97,87 %
24.04.2021 06:52 3,7 C 3,3 C 1,1 C 82 % 1028,2 hPa 0,0 l/m 0 min 0 min 29 W/m 0,0 km/h (0 Bft) 97,87 %
24.04.2021 06:54 3,7 C 3,3 C 1,1 C 83 % 1028,2 hPa 0,0 l/m 0 min 0 min 31 W/m 0,0 km/h (0 Bft) 100,00 %
24.04.2021 06:56 3,7 C 3,3 C 1,1 C 83 % 1028,2 hPa 0,0 l/m 0 min 0 min 32 W/m 3,2 km/h (1 Bft) 97,83 %
24.04.2021 06:58 3,7 C 3,3 C 1,1 C 83 % 1028,2 hPa 0,0 l/m 0 min 0 min 32 W/m 0,0 km/h (0 Bft) 97,87 %
24.04.2021 07:00 3,7 C 3,3 C 1,1 C 83 % 1028,2 hPa 0,0 l/m 0 min 0 min 34 W/m 3,2 km/h (1 Bft) 97,87 %
24.04.2021 07:02 3,7 C 3,3 C 1,1 C 83 % 1028,1 hPa 0,0 l/m 0 min 0 min 36 W/m 3,2 km/h (1 Bft) 100,00 %
24.04.2021 07:04 3,7 C 3,3 C 1,1 C 83 % 1028,1 hPa 0,0 l/m 0 min 0 min 38 W/m 0,0 km/h (0 Bft) 100,00 %
24.04.2021 07:06 3,7 C 3,3 C 1,1 C 83 % 1028,2 hPa 0,0 l/m 0 min 0 min 39 W/m 0,0 km/h (0 Bft) 100,00 %
24.04.2021 07:08 3,7 C 3,3 C 1,1 C 83 % 1028,2 hPa 0,0 l/m 0 min 0 min 40 W/m 0,0 km/h (0 Bft) 100,00 %
24.04.2021 07:10 3,7 C 3,3 C 1,1 C 83 % 1028,2 hPa 0,0 l/m 0 min 0 min 41 W/m 0,0 km/h (0 Bft) 100,00 %
24.04.2021 07:12 3,7 C 3,3 C 1,1 C 84 % 1028,3 hPa 0,0 l/m 0 min 0 min 43 W/m 3,2 km/h (1 Bft) 100,00 %
24.04.2021 07:14 3,8 C 3,3 C 1,1 C 84 % 1028,2 hPa 0,0 l/m 0 min 0 min 44 W/m 3,2 km/h (1 Bft) 97,87 %
24.04.2021 07:16 3,8 C 3,3 C 1,1 C 84 % 1028,2 hPa 0,0 l/m 0 min 0 min 46 W/m 3,2 km/h (1 Bft) 100,00 %
24.04.2021 07:18 3,8 C 3,9 C 1,1 C 84 % 1028,2 hPa 0,0 l/m 0 min 0 min 47 W/m 3,2 km/h (1 Bft) 100,00 %
24.04.2021 07:20 3,8 C 3,9 C 1,1 C 84 % 1028,2 hPa 0,0 l/m 0 min 0 min 49 W/m 6,4 km/h (2 Bft) 100,00 %
24.04.2021 07:22 3,8 C 3,9 C 1,1 C 84 % 1028,3 hPa 0,0 l/m 0 min 0 min 50 W/m 3,2 km/h (1 Bft) 97,87 %
24.04.2021 07:24 3,8 C 3,9 C 1,7 C 84 % 1028,2 hPa 0,0 l/m 0 min 0 min 52 W/m 3,2 km/h (1 Bft) 100,00 %
24.04.2021 07:26 3,9 C 3,9 C 1,7 C 84 % 1028,3 hPa 0,0 l/m 0 min 0 min 54 W/m 3,2 km/h (1 Bft) 100,00 %
24.04.2021 07:28 3,9 C 3,9 C 1,7 C 85 % 1028,3 hPa 0,0 l/m 0 min 0 min 54 W/m 6,4 km/h (2 Bft) 100,00 %
24.04.2021 07:30 3,9 C 3,9 C 1,7 C 85 % 1028,3 hPa 0,0 l/m 0 min 0 min 54 W/m 3,2 km/h (1 Bft) 97,83 %
24.04.2021 07:32 3,9 C 3,9 C 1,7 C 85 % 1028,3 hPa 0,0 l/m 0 min 0 min 55 W/m 6,4 km/h (2 Bft) 97,87 %
24.04.2021 07:34 4,0 C 3,9 C 1,7 C 85 % 1028,3 hPa 0,0 l/m 0 min 0 min 56 W/m 9,7 km/h (2 Bft) 100,00 %
24.04.2021 07:36 4,0 C 3,9 C 1,7 C 85 % 1028,3 hPa 0,0 l/m 0 min 0 min 57 W/m 6,4 km/h (2 Bft) 100,00 %
24.04.2021 07:38 4,0 C 4,4 C 1,7 C 85 % 1028,3 hPa 0,0 l/m 0 min 0 min 59 W/m 3,2 km/h (1 Bft) 100,00 %
24.04.2021 07:40 4,1 C 4,4 C 1,7 C 85 % 1028,3 hPa 0,0 l/m 0 min 0 min 62 W/m 3,2 km/h (1 Bft) 97,87 %
24.04.2021 07:42 4,2 C 4,4 C 1,7 C 85 % 1028,3 hPa 0,0 l/m 0 min 0 min 64 W/m 3,2 km/h (1 Bft) 100,00 %
24.04.2021 07:44 4,3 C 4,4 C 1,7 C 86 % 1028,3 hPa 0,0 l/m 0 min 0 min 68 W/m 6,4 km/h (2 Bft) 97,92 %
24.04.2021 07:46 4,3 C 4,4 C 1,7 C 86 % 1028,4 hPa 0,0 l/m 0 min 0 min 72 W/m 3,2 km/h (1 Bft) 100,00 %
24.04.2021 07:48 4,4 C 4,4 C 2,3 C 86 % 1028,4 hPa 0,0 l/m 0 min 0 min 75 W/m 6,4 km/h (2 Bft) 95,74 %
24.04.2021 07:50 4,5 C 5,0 C 2,3 C 86 % 1028,3 hPa 0,0 l/m 0 min 0 min 76 W/m 3,2 km/h (1 Bft) 97,92 %
24.04.2021 07:52 4,5 C 5,0 C 2,3 C 86 % 1028,3 hPa 0,0 l/m 0 min 0 min 78 W/m 3,2 km/h (1 Bft) 97,87 %
24.04.2021 07:54 4,6 C 5,0 C 2,3 C 86 % 1028,3 hPa 0,0 l/m 0 min 0 min 82 W/m 6,4 km/h (2 Bft) 97,83 %
24.04.2021 07:56 4,7 C 5,0 C 2,3 C 86 % 1028,4 hPa 0,0 l/m 0 min 0 min 86 W/m 9,7 km/h (2 Bft) 97,87 %
24.04.2021 07:58 4,7 C 5,0 C 2,3 C 86 % 1028,4 hPa 0,0 l/m 0 min 0 min 90 W/m 9,7 km/h (2 Bft) 97,87 %
24.04.2021 08:00 4,8 C 5,0 C 2,3 C 86 % 1028,3 hPa 0,0 l/m 0 min 0 min 94 W/m 9,7 km/h (2 Bft) 97,87 %
24.04.2021 08:02 4,9 C 5,6 C 2,8 C 86 % 1028,3 hPa 0,0 l/m 0 min 0 min 98 W/m 6,4 km/h (2 Bft) 95,74 %
24.04.2021 08:04 4,9 C 5,6 C 2,8 C 85 % 1028,3 hPa 0,0 l/m 0 min 0 min 102 W/m 3,2 km/h (1 Bft) 95,74 %
24.04.2021 08:06 5,0 C 5,6 C 2,8 C 85 % 1028,3 hPa 0,0 l/m 0 min 0 min 106 W/m 6,4 km/h (2 Bft) 97,83 %
24.04.2021 08:08 5,0 C 5,6 C 2,8 C 85 % 1028,4 hPa 0,0 l/m 0 min 0 min 108 W/m 3,2 km/h (1 Bft) 93,62 %
24.04.2021 08:10 5,1 C 5,6 C 2,8 C 85 % 1028,4 hPa 0,0 l/m 0 min 0 min 110 W/m 6,4 km/h (2 Bft) 94,00 %
24.04.2021 08:12 5,2 C 5,6 C 2,8 C 85 % 1028,4 hPa 0,0 l/m 0 min 0 min 112 W/m 6,4 km/h (2 Bft) 97,83 %
24.04.2021 08:14 5,2 C 6,1 C 2,8 C 84 % 1028,4 hPa 0,0 l/m 0 min 0 min 114 W/m 6,4 km/h (2 Bft) 97,87 %
24.04.2021 08:16 5,3 C 6,1 C 2,8 C 84 % 1028,4 hPa 0,0 l/m 0 min 0 min 116 W/m 9,7 km/h (2 Bft) 97,87 %
24.04.2021 08:18 5,4 C 6,1 C 2,8 C 84 % 1028,4 hPa 0,0 l/m 0 min 0 min 117 W/m 6,4 km/h (2 Bft) 95,74 %
24.04.2021 08:20 5,4 C 6,1 C 3,4 C 83 % 1028,3 hPa 0,0 l/m 0 min 0 min 120 W/m 6,4 km/h (2 Bft) 95,74 %
24.04.2021 08:22 5,4 C 6,1 C 3,4 C 83 % 1028,3 hPa 0,0 l/m 0 min 0 min 122 W/m 9,7 km/h (2 Bft) 95,74 %
24.04.2021 08:24 5,5 C 6,1 C 3,4 C 83 % 1028,3 hPa 0,0 l/m 0 min 0 min 126 W/m 6,4 km/h (2 Bft) 95,65 %
24.04.2021 08:26 5,5 C 6,1 C 3,4 C 83 % 1028,3 hPa 0,0 l/m 0 min 0 min 130 W/m 6,4 km/h (2 Bft) 95,74 %
24.04.2021 08:28 5,6 C 6,7 C 3,4 C 83 % 1028,3 hPa 0,0 l/m 0 min 0 min 134 W/m 9,7 km/h (2 Bft) 95,74 %
24.04.2021 08:30 5,6 C 6,7 C 3,4 C 83 % 1028,3 hPa 0,0 l/m 0 min 0 min 135 W/m 9,7 km/h (2 Bft) 93,62 %
24.04.2021 08:32 5,8 C 6,7 C 3,9 C 82 % 1028,3 hPa 0,0 l/m 0 min 0 min 136 W/m 9,7 km/h (2 Bft) 93,62 %
24.04.2021 08:34 5,8 C 6,7 C 3,9 C 82 % 1028,3 hPa 0,0 l/m 0 min 0 min 141 W/m 12,9 km/h (3 Bft) 95,65 %
24.04.2021 08:36 5,9 C 6,7 C 3,9 C 82 % 1028,4 hPa 0,0 l/m 2 min 0 min 171 W/m 9,7 km/h (2 Bft) 95,74 %
24.04.2021 08:38 6,0 C 6,7 C 3,9 C 81 % 1028,4 hPa 0,0 l/m 2 min 0 min 237 W/m 9,7 km/h (2 Bft) 95,74 %
24.04.2021 08:40 6,0 C 6,7 C 3,9 C 81 % 1028,3 hPa 0,0 l/m 2 min 0 min 262 W/m 12,9 km/h (3 Bft) 93,62 %
24.04.2021 08:42 6,0 C 7,2 C 3,9 C 81 % 1028,4 hPa 0,0 l/m 2 min 0 min 291 W/m 6,4 km/h (2 Bft) 97,87 %
24.04.2021 08:44 6,1 C 7,2 C 3,9 C 80 % 1028,4 hPa 0,0 l/m 2 min 0 min 305 W/m 9,7 km/h (2 Bft) 95,74 %
24.04.2021 08:46 6,3 C 7,2 C 3,9 C 80 % 1028,3 hPa 0,0 l/m 2 min 0 min 301 W/m 9,7 km/h (2 Bft) 95,65 %
24.04.2021 08:48 6,3 C 7,8 C 4,5 C 80 % 1028,3 hPa 0,0 l/m 2 min 0 min 336 W/m 9,7 km/h (2 Bft) 95,74 %
24.04.2021 08:50 6,4 C 8,9 C 4,5 C 80 % 1028,3 hPa 0,0 l/m 2 min 0 min 355 W/m 6,4 km/h (2 Bft) 93,62 %
24.04.2021 08:52 6,6 C 9,4 C 4,5 C 80 % 1028,3 hPa 0,0 l/m 2 min 0 min 356 W/m 9,7 km/h (2 Bft) 89,36 %
24.04.2021 08:54 6,7 C 10,6 C 4,5 C 79 % 1028,2 hPa 0,0 l/m 2 min 0 min 323 W/m 12,9 km/h (3 Bft) 95,74 %
24.04.2021 08:56 6,9 C 11,1 C 4,5 C 79 % 1028,3 hPa 0,0 l/m 2 min 0 min 339 W/m 12,9 km/h (3 Bft) 95,74 %
24.04.2021 08:58 7,0 C 11,1 C 4,5 C 78 % 1028,3 hPa 0,0 l/m 2 min 0 min 308 W/m 9,7 km/h (2 Bft) 91,30 %
24.04.2021 09:00 7,1 C 11,1 C 4,5 C 78 % 1028,2 hPa 0,0 l/m 2 min 0 min 322 W/m 12,9 km/h (3 Bft) 95,74 %
24.04.2021 09:02 7,1 C 11,1 C 4,5 C 78 % 1028,2 hPa 0,0 l/m 2 min 0 min 317 W/m 12,9 km/h (3 Bft) 91,49 %
24.04.2021 09:04 7,3 C 11,1 C 4,5 C 78 % 1028,2 hPa 0,0 l/m 2 min 0 min 304 W/m 9,7 km/h (2 Bft) 93,62 %
24.04.2021 09:06 7,4 C 11,7 C 5,0 C 78 % 1028,3 hPa 0,0 l/m 2 min 0 min 333 W/m 16,1 km/h (3 Bft) 91,49 %
24.04.2021 09:08 7,4 C 11,7 C 5,0 C 78 % 1028,2 hPa 0,0 l/m 2 min 0 min 321 W/m 9,7 km/h (2 Bft) 93,62 %
24.04.2021 09:10 7,5 C 11,7 C 5,6 C 78 % 1028,3 hPa 0,0 l/m 2 min 0 min 351 W/m 9,7 km/h (2 Bft) 93,48 %
24.04.2021 09:12 7,5 C 12,2 C 6,1 C 78 % 1028,3 hPa 0,0 l/m 2 min 0 min 355 W/m 6,4 km/h (2 Bft) 97,87 %
24.04.2021 09:14 7,6 C 12,2 C 6,7 C 78 % 1028,3 hPa 0,0 l/m 2 min 0 min 355 W/m 16,1 km/h (3 Bft) 95,74 %
24.04.2021 09:16 7,7 C 12,2 C 7,3 C 78 % 1028,3 hPa 0,0 l/m 2 min 0 min 371 W/m 16,1 km/h (3 Bft) 95,74 %
24.04.2021 09:18 7,8 C 12,8 C 7,3 C 78 % 1028,4 hPa 0,0 l/m 2 min 0 min 390 W/m 16,1 km/h (3 Bft) 95,74 %
24.04.2021 09:20 7,8 C 13,3 C 7,8 C 77 % 1028,3 hPa 0,0 l/m 2 min 0 min 402 W/m 22,5 km/h (4 Bft) 95,74 %
24.04.2021 09:22 7,9 C 13,3 C 8,4 C 77 % 1028,3 hPa 0,0 l/m 2 min 0 min 421 W/m 12,9 km/h (3 Bft) 93,48 %
24.04.2021 09:24 8,0 C 13,9 C 8,9 C 77 % 1028,3 hPa 0,0 l/m 2 min 0 min 425 W/m 12,9 km/h (3 Bft) 93,62 %
24.04.2021 09:26 8,1 C 14,4 C 8,9 C 77 % 1028,3 hPa 0,0 l/m 2 min 0 min 450 W/m 12,9 km/h (3 Bft) 97,87 %
24.04.2021 09:28 8,3 C 15,0 C 8,9 C 77 % 1028,3 hPa 0,0 l/m 2 min 0 min 467 W/m 12,9 km/h (3 Bft) 95,74 %
24.04.2021 09:30 8,4 C 15,6 C 8,9 C 76 % 1028,3 hPa 0,0 l/m 2 min 0 min 476 W/m 12,9 km/h (3 Bft) 100,00 %
24.04.2021 09:32 8,5 C 15,6 C 9,5 C 76 % 1028,3 hPa 0,0 l/m 2 min 0 min 501 W/m 12,9 km/h (3 Bft) 97,87 %
24.04.2021 09:34 8,6 C 15,6 C 10,0 C 76 % 1028,3 hPa 0,0 l/m 2 min 0 min 509 W/m 9,7 km/h (2 Bft) 100,00 %
24.04.2021 09:36 8,7 C 15,6 C 10,0 C 75 % 1028,4 hPa 0,0 l/m 2 min 0 min 504 W/m 9,7 km/h (2 Bft) 100,00 %
24.04.2021 09:38 8,8 C 16,1 C 10,6 C 75 % 1028,3 hPa 0,0 l/m 2 min 0 min 509 W/m 12,9 km/h (3 Bft) 100,00 %
24.04.2021 09:40 9,0 C 16,7 C 10,6 C 75 % 1028,3 hPa 0,0 l/m 2 min 0 min 521 W/m 12,9 km/h (3 Bft) 100,00 %
24.04.2021 09:42 9,1 C 16,1 C 10,6 C 73 % 1028,2 hPa 0,0 l/m 2 min 0 min 512 W/m 12,9 km/h (3 Bft) 100,00 %
24.04.2021 09:44 9,2 C 16,7 C 11,1 C 73 % 1028,3 hPa 0,0 l/m 2 min 0 min 496 W/m 9,7 km/h (2 Bft) 100,00 %
24.04.2021 09:46 9,3 C 16,1 C 11,1 C 73 % 1028,3 hPa 0,0 l/m 2 min 0 min 480 W/m 9,7 km/h (2 Bft) 97,83 %
24.04.2021 09:48 9,4 C 15,6 C 10,0 C 72 % 1028,2 hPa 0,0 l/m 0 min 0 min 242 W/m 12,9 km/h (3 Bft) 97,87 %
24.04.2021 09:50 9,3 C 15,6 C 9,5 C 72 % 1028,2 hPa 0,0 l/m 0 min 0 min 141 W/m 12,9 km/h (3 Bft) 100,00 %
24.04.2021 09:52 9,4 C 16,1 C 10,0 C 72 % 1028,2 hPa 0,0 l/m 0 min 0 min 151 W/m 9,7 km/h (2 Bft) 100,00 %
24.04.2021 09:54 9,5 C 16,1 C 10,0 C 72 % 1028,2 hPa 0,0 l/m 0 min 0 min 197 W/m 16,1 km/h (3 Bft) 100,00 %
24.04.2021 09:56 9,5 C 16,7 C 9,5 C 72 % 1028,2 hPa 0,0 l/m 2 min 0 min 331 W/m 12,9 km/h (3 Bft) 100,00 %
24.04.2021 09:58 9,7 C 16,7 C 10,0 C 72 % 1028,2 hPa 0,0 l/m 2 min 0 min 421 W/m 16,1 km/h (3 Bft) 100,00 %
24.04.2021 10:00 9,8 C 16,7 C 10,0 C 71 % 1028,2 hPa 0,0 l/m 2 min 0 min 288 W/m 9,7 km/h (2 Bft) 97,87 %
24.04.2021 10:02 9,8 C 16,1 C 9,5 C 71 % 1028,1 hPa 0,0 l/m 2 min 0 min 268 W/m 9,7 km/h (2 Bft) 100,00 %
24.04.2021 10:04 9,8 C 15,0 C 8,9 C 71 % 1028,1 hPa 0,0 l/m 0 min 0 min 267 W/m 9,7 km/h (2 Bft) 100,00 %
24.04.2021 10:06 9,8 C 15,6 C 8,9 C 71 % 1028,1 hPa 0,0 l/m 2 min 0 min 284 W/m 12,9 km/h (3 Bft) 100,00 %
24.04.2021 10:08 9,9 C 15,6 C 8,9 C 71 % 1028,2 hPa 0,0 l/m 2 min 0 min 319 W/m 16,1 km/h (3 Bft) 100,00 %
24.04.2021 10:10 10,0 C 16,1 C 8,9 C 71 % 1028,1 hPa 0,0 l/m 2 min 0 min 411 W/m 6,4 km/h (2 Bft) 100,00 %
24.04.2021 10:12 10,0 C 16,7 C 8,9 C 70 % 1028,2 hPa 0,0 l/m 2 min 0 min 411 W/m 12,9 km/h (3 Bft) 100,00 %
24.04.2021 10:14 10,0 C 16,1 C 8,9 C 70 % 1028,1 hPa 0,0 l/m 2 min 0 min 558 W/m 16,1 km/h (3 Bft) 100,00 %
24.04.2021 10:16 10,0 C 16,1 C 9,5 C 70 % 1028,1 hPa 0,0 l/m 2 min 0 min 574 W/m 16,1 km/h (3 Bft) 95,74 %
24.04.2021 10:18 10,0 C 15,6 C 10,0 C 70 % 1028,2 hPa 0,0 l/m 2 min 0 min 557 W/m 12,9 km/h (3 Bft) 97,87 %
24.04.2021 10:20 10,0 C 15,6 C 10,0 C 70 % 1028,2 hPa 0,0 l/m 2 min 0 min 624 W/m 12,9 km/h (3 Bft) 100,00 %
24.04.2021 10:22 10,1 C 15,0 C 9,5 C 69 % 1028,2 hPa 0,0 l/m 2 min 0 min 473 W/m 9,7 km/h (2 Bft) 100,00 %
24.04.2021 10:24 10,0 C 13,9 C 8,9 C 69 % 1028,2 hPa 0,0 l/m 0 min 0 min 224 W/m 12,9 km/h (3 Bft) 100,00 %
24.04.2021 10:26 9,9 C 13,3 C 8,4 C 69 % 1028,2 hPa 0,0 l/m 0 min 0 min 212 W/m 9,7 km/h (2 Bft) 100,00 %
24.04.2021 10:28 9,9 C 13,9 C 8,4 C 71 % 1028,1 hPa 0,0 l/m 2 min 0 min 527 W/m 6,4 km/h (2 Bft) 100,00 %
24.04.2021 10:30 9,9 C 13,9 C 8,9 C 70 % 1028,2 hPa 0,0 l/m 2 min 0 min 709 W/m 9,7 km/h (2 Bft) 100,00 %
24.04.2021 10:32 10,0 C 12,8 C 8,9 C 70 % 1028,2 hPa 0,0 l/m 2 min 0 min 486 W/m 16,1 km/h (3 Bft) 100,00 %
24.04.2021 10:34 10,0 C 12,8 C 8,9 C 69 % 1028,2 hPa 0,0 l/m 2 min 0 min 356 W/m 16,1 km/h (3 Bft) 100,00 %
24.04.2021 10:36 10,0 C 12,2 C 8,9 C 69 % 1028,1 hPa 0,0 l/m 2 min 0 min 312 W/m 22,5 km/h (4 Bft) 95,74 %
24.04.2021 10:38 10,0 C 12,8 C 10,0 C 69 % 1028,1 hPa 0,0 l/m 2 min 0 min 546 W/m 9,7 km/h (2 Bft) 100,00 %
24.04.2021 10:40 10,0 C 12,8 C 10,6 C 69 % 1028,2 hPa 0,0 l/m 2 min 0 min 801 W/m 19,3 km/h (3 Bft) 100,00 %
24.04.2021 10:42 10,0 C 13,3 C 10,0 C 68 % 1028,2 hPa 0,0 l/m 2 min 0 min 681 W/m 9,7 km/h (2 Bft) 100,00 %
24.04.2021 10:44 10,1 C 13,3 C 10,0 C 69 % 1028,2 hPa 0,0 l/m 2 min 0 min 596 W/m 9,7 km/h (2 Bft) 100,00 %
24.04.2021 10:46 10,2 C 13,9 C 10,0 C 69 % 1028,2 hPa 0,0 l/m 2 min 0 min 652 W/m 6,4 km/h (2 Bft) 100,00 %
24.04.2021 10:48 10,3 C 13,9 C 10,6 C 68 % 1028,1 hPa 0,0 l/m 2 min 0 min 718 W/m 16,1 km/h (3 Bft) 100,00 %
24.04.2021 10:50 10,3 C 13,9 C 11,1 C 67 % 1028,1 hPa 0,0 l/m 2 min 0 min 765 W/m 16,1 km/h (3 Bft) 100,00 %
24.04.2021 10:52 10,4 C 13,9 C 11,7 C 67 % 1028,1 hPa 0,0 l/m 2 min 0 min 750 W/m 16,1 km/h (3 Bft) 100,00 %
24.04.2021 10:54 10,4 C 13,9 C 11,7 C 67 % 1028,1 hPa 0,0 l/m 2 min 0 min 685 W/m 12,9 km/h (3 Bft) 100,00 %
24.04.2021 10:56 10,4 C 13,3 C 12,3 C 68 % 1028,1 hPa 0,0 l/m 2 min 0 min 640 W/m 19,3 km/h (3 Bft) 100,00 %
24.04.2021 10:58 10,5 C 13,3 C 12,3 C 67 % 1028,0 hPa 0,0 l/m 2 min 0 min 669 W/m 29,0 km/h (5 Bft) 100,00 %
24.04.2021 11:00 10,4 C 12,8 C 11,7 C 67 % 1028,0 hPa 0,0 l/m 2 min 0 min 675 W/m 16,1 km/h (3 Bft) 97,87 %
24.04.2021 11:02 10,4 C 13,3 C 11,1 C 66 % 1028,0 hPa 0,0 l/m 2 min 0 min 698 W/m 22,5 km/h (4 Bft) 100,00 %
24.04.2021 11:04 10,4 C 13,3 C 10,0 C 66 % 1028,0 hPa 0,0 l/m 2 min 0 min 727 W/m 9,7 km/h (2 Bft) 100,00 %
24.04.2021 11:06 10,4 C 12,8 C 9,5 C 65 % 1028,0 hPa 0,0 l/m 2 min 0 min 704 W/m 12,9 km/h (3 Bft) 100,00 %
24.04.2021 11:08 10,4 C 12,8 C 9,5 C 66 % 1027,9 hPa 0,0 l/m 2 min 0 min 697 W/m 12,9 km/h (3 Bft) 100,00 %
24.04.2021 11:10 10,5 C 13,3 C 10,0 C 66 % 1027,9 hPa 0,0 l/m 2 min 0 min 684 W/m 9,7 km/h (2 Bft) 100,00 %
24.04.2021 11:12 10,5 C 12,8 C 10,0 C 65 % 1027,9 hPa 0,0 l/m 2 min 0 min 719 W/m 19,3 km/h (3 Bft) 100,00 %
24.04.2021 11:14 10,6 C 13,3 C 9,5 C 65 % 1028,0 hPa 0,0 l/m 2 min 0 min 721 W/m 19,3 km/h (3 Bft) 100,00 %
24.04.2021 11:16 10,8 C 13,9 C 9,5 C 65 % 1028,0 hPa 0,0 l/m 2 min 0 min 688 W/m 9,7 km/h (2 Bft) 100,00 %
24.04.2021 11:18 10,9 C 13,9 C 9,5 C 65 % 1028,0 hPa 0,0 l/m 2 min 0 min 665 W/m 9,7 km/h (2 Bft) 100,00 %
24.04.2021 11:20 11,0 C 14,4 C 8,9 C 63 % 1028,0 hPa 0,0 l/m 2 min 0 min 686 W/m 16,1 km/h (3 Bft) 100,00 %
24.04.2021 11:22 11,0 C 13,9 C 9,5 C 64 % 1028,0 hPa 0,0 l/m 2 min 0 min 650 W/m 9,7 km/h (2 Bft) 100,00 %
24.04.2021 11:24 11,0 C 13,9 C 9,5 C 63 % 1028,0 hPa 0,0 l/m 2 min 0 min 643 W/m 12,9 km/h (3 Bft) 97,87 %
24.04.2021 11:26 11,1 C 14,4 C 9,5 C 64 % 1028,0 hPa 0,0 l/m 2 min 0 min 675 W/m 9,7 km/h (2 Bft) 97,87 %
24.04.2021 11:28 11,1 C 15,0 C 9,5 C 64 % 1028,0 hPa 0,0 l/m 2 min 0 min 651 W/m 12,9 km/h (3 Bft) 100,00 %
24.04.2021 11:30 11,2 C 15,6 C 9,5 C 64 % 1028,0 hPa 0,0 l/m 2 min 0 min 706 W/m 12,9 km/h (3 Bft) 100,00 %
24.04.2021 11:32 11,3 C 16,1 C 9,5 C 65 % 1028,0 hPa 0,0 l/m 2 min 0 min 738 W/m 9,7 km/h (2 Bft) 100,00 %
24.04.2021 11:34 11,4 C 16,1 C 9,5 C 64 % 1028,0 hPa 0,0 l/m 2 min 0 min 770 W/m 9,7 km/h (2 Bft) 100,00 %
24.04.2021 11:36 11,5 C 16,1 C 10,0 C 64 % 1027,9 hPa 0,0 l/m 2 min 0 min 771 W/m 6,4 km/h (2 Bft) 97,87 %
24.04.2021 11:38 11,6 C 16,1 C 10,0 C 64 % 1027,9 hPa 0,0 l/m 2 min 0 min 793 W/m 6,4 km/h (2 Bft) 95,74 %
24.04.2021 11:40 11,8 C 16,1 C 10,0 C 63 % 1028,0 hPa 0,0 l/m 2 min 0 min 795 W/m 12,9 km/h (3 Bft) 100,00 %
24.04.2021 11:42 11,9 C 16,7 C 10,6 C 63 % 1028,0 hPa 0,0 l/m 2 min 0 min 811 W/m 16,1 km/h (3 Bft) 97,87 %
24.04.2021 11:44 11,9 C 16,1 C 11,1 C 61 % 1027,9 hPa 0,0 l/m 2 min 0 min 808 W/m 16,1 km/h (3 Bft) 100,00 %
24.04.2021 11:46 12,0 C 15,6 C 11,7 C 61 % 1027,9 hPa 0,0 l/m 2 min 0 min 800 W/m 25,7 km/h (4 Bft) 93,62 %
24.04.2021 11:48 12,0 C 15,0 C 12,3 C 60 % 1028,0 hPa 0,0 l/m 2 min 0 min 793 W/m 16,1 km/h (3 Bft) 95,74 %
24.04.2021 11:50 12,0 C 14,4 C 12,3 C 60 % 1027,9 hPa 0,0 l/m 2 min 0 min 807 W/m 6,4 km/h (2 Bft) 95,74 %
24.04.2021 11:52 12,0 C 15,0 C 11,7 C 61 % 1027,9 hPa 0,0 l/m 2 min 0 min 825 W/m 16,1 km/h (3 Bft) 95,74 %
24.04.2021 11:54 12,1 C 15,0 C 11,7 C 62 % 1027,8 hPa 0,0 l/m 2 min 0 min 789 W/m 12,9 km/h (3 Bft) 95,65 %
24.04.2021 11:56 12,2 C 14,4 C 12,3 C 61 % 1027,8 hPa 0,0 l/m 2 min 0 min 830 W/m 12,9 km/h (3 Bft) 95,74 %
24.04.2021 11:58 12,3 C 15,0 C 13,4 C 61 % 1027,9 hPa 0,0 l/m 2 min 0 min 828 W/m 16,1 km/h (3 Bft) 95,74 %
24.04.2021 12:00 12,4 C 15,6 C 14,5 C 60 % 1027,8 hPa 0,0 l/m 2 min 0 min 837 W/m 12,9 km/h (3 Bft) 95,74 %
24.04.2021 12:02 12,5 C 16,1 C 13,9 C 59 % 1027,8 hPa 0,0 l/m 2 min 0 min 810 W/m 9,7 km/h (2 Bft) 93,62 %
24.04.2021 12:04 12,5 C 16,1 C 14,5 C 58 % 1027,7 hPa 0,0 l/m 2 min 0 min 725 W/m 19,3 km/h (3 Bft) 93,62 %
24.04.2021 12:08 12,4 C 16,1 C 13,4 C 59 % 1027,7 hPa 0,0 l/m 4 min 0 min 694 W/m 22,5 km/h (4 Bft) 95,70 %
24.04.2021 12:10 12,3 C 16,1 C 12,8 C 60 % 1027,7 hPa 0,0 l/m 2 min 0 min 689 W/m 12,9 km/h (3 Bft) 95,74 %
24.04.2021 12:12 12,4 C 16,1 C 12,3 C 61 % 1027,7 hPa 0,0 l/m 2 min 0 min 688 W/m 16,1 km/h (3 Bft) 95,74 %
24.04.2021 12:14 12,4 C 16,7 C 12,3 C 60 % 1027,6 hPa 0,0 l/m 2 min 0 min 675 W/m 9,7 km/h (2 Bft) 95,74 %
24.04.2021 12:16 12,4 C 16,7 C 11,7 C 59 % 1027,6 hPa 0,0 l/m 2 min 0 min 644 W/m 25,7 km/h (4 Bft) 93,62 %
24.04.2021 12:18 12,4 C 16,7 C 12,3 C 60 % 1027,6 hPa 0,0 l/m 2 min 0 min 656 W/m 22,5 km/h (4 Bft) 93,48 %
24.04.2021 12:20 12,4 C 16,7 C 12,8 C 59 % 1027,6 hPa 0,0 l/m 2 min 0 min 801 W/m 19,3 km/h (3 Bft) 95,74 %
24.04.2021 12:22 12,5 C 17,2 C 13,4 C 60 % 1027,5 hPa 0,0 l/m 2 min 0 min 827 W/m 12,9 km/h (3 Bft) 93,62 %
24.04.2021 12:24 12,6 C 17,2 C 14,5 C 60 % 1027,5 hPa 0,0 l/m 2 min 0 min 747 W/m 9,7 km/h (2 Bft) 93,62 %
24.04.2021 12:26 12,6 C 16,7 C 15,0 C 59 % 1027,6 hPa 0,0 l/m 2 min 0 min 742 W/m 25,7 km/h (4 Bft) 95,74 %
24.04.2021 12:28 12,6 C 16,7 C 15,6 C 59 % 1027,5 hPa 0,0 l/m 2 min 0 min 777 W/m 22,5 km/h (4 Bft) 95,74 %
24.04.2021 12:30 12,7 C 16,7 C 16,7 C 59 % 1027,6 hPa 0,0 l/m 2 min 0 min 828 W/m 12,9 km/h (3 Bft) 100,00 %
24.04.2021 12:32 12,7 C 17,2 C 17,3 C 59 % 1027,5 hPa 0,0 l/m 2 min 0 min 854 W/m 19,3 km/h (3 Bft) 97,87 %
24.04.2021 12:34 12,8 C 16,7 C 16,7 C 58 % 1027,5 hPa 0,0 l/m 2 min 0 min 791 W/m 29,0 km/h (5 Bft) 97,87 %
24.04.2021 12:36 12,7 C 16,1 C 16,7 C 58 % 1027,5 hPa 0,0 l/m 2 min 0 min 755 W/m 19,3 km/h (3 Bft) 97,87 %
24.04.2021 12:38 12,7 C 16,7 C 17,3 C 58 % 1027,6 hPa 0,0 l/m 2 min 0 min 795 W/m 16,1 km/h (3 Bft) 97,87 %
24.04.2021 12:40 12,8 C 16,7 C 17,3 C 57 % 1027,5 hPa 0,0 l/m 2 min 0 min 811 W/m 16,1 km/h (3 Bft) 97,87 %
24.04.2021 12:42 12,9 C 17,2 C 17,8 C 59 % 1027,5 hPa 0,0 l/m 2 min 0 min 836 W/m 16,1 km/h (3 Bft) 97,87 %
24.04.2021 12:44 13,0 C 17,8 C 17,3 C 58 % 1027,5 hPa 0,0 l/m 2 min 0 min 917 W/m 16,1 km/h (3 Bft) 100,00 %
24.04.2021 12:46 13,1 C 17,2 C 16,1 C 57 % 1027,5 hPa 0,0 l/m 2 min 0 min 680 W/m 9,7 km/h (2 Bft) 100,00 %
24.04.2021 12:48 13,1 C 17,2 C 16,7 C 56 % 1027,4 hPa 0,0 l/m 2 min 0 min 707 W/m 6,4 km/h (2 Bft) 100,00 %
24.04.2021 12:50 13,1 C 17,2 C 17,3 C 57 % 1027,5 hPa 0,0 l/m 2 min 0 min 728 W/m 9,7 km/h (2 Bft) 100,00 %
24.04.2021 12:52 13,1 C 16,7 C 17,3 C 56 % 1027,5 hPa 0,0 l/m 2 min 0 min 780 W/m 19,3 km/h (3 Bft) 100,00 %
24.04.2021 12:54 13,2 C 17,2 C 18,9 C 56 % 1027,4 hPa 0,0 l/m 2 min 0 min 890 W/m 9,7 km/h (2 Bft) 97,87 %
24.04.2021 12:56 13,3 C 17,2 C 19,5 C 56 % 1027,4 hPa 0,0 l/m 2 min 0 min 905 W/m 12,9 km/h (3 Bft) 100,00 %
24.04.2021 12:58 13,4 C 18,3 C 18,4 C 56 % 1027,4 hPa 0,0 l/m 2 min 0 min 896 W/m 25,7 km/h (4 Bft) 100,00 %
24.04.2021 13:00 13,5 C 18,3 C 17,3 C 57 % 1027,4 hPa 0,0 l/m 2 min 0 min 896 W/m 16,1 km/h (3 Bft) 100,00 %
24.04.2021 13:02 13,5 C 17,8 C 16,1 C 56 % 1027,3 hPa 0,0 l/m 2 min 0 min 908 W/m 22,5 km/h (4 Bft) 97,87 %
24.04.2021 13:04 13,5 C 18,3 C 16,1 C 56 % 1027,2 hPa 0,0 l/m 2 min 0 min 903 W/m 9,7 km/h (2 Bft) 97,87 %
24.04.2021 13:06 13,6 C 18,9 C 15,0 C 57 % 1027,3 hPa 0,0 l/m 2 min 0 min 887 W/m 12,9 km/h (3 Bft) 100,00 %
24.04.2021 13:08 13,7 C 18,9 C 13,9 C 57 % 1027,2 hPa 0,0 l/m 2 min 0 min 851 W/m 16,1 km/h (3 Bft) 100,00 %
24.04.2021 13:10 13,8 C 19,4 C 13,9 C 56 % 1027,1 hPa 0,0 l/m 2 min 0 min 772 W/m 6,4 km/h (2 Bft) 100,00 %
24.04.2021 13:12 13,8 C 18,9 C 13,9 C 57 % 1027,2 hPa 0,0 l/m 2 min 0 min 786 W/m 19,3 km/h (3 Bft) 100,00 %
24.04.2021 13:14 13,8 C 18,9 C 13,9 C 57 % 1027,1 hPa 0,0 l/m 2 min 0 min 809 W/m 16,1 km/h (3 Bft) 100,00 %
24.04.2021 13:16 13,8 C 17,8 C 14,5 C 56 % 1027,1 hPa 0,0 l/m 2 min 0 min 802 W/m 19,3 km/h (3 Bft) 100,00 %
24.04.2021 13:18 13,8 C 17,8 C 15,6 C 55 % 1027,1 hPa 0,0 l/m 2 min 0 min 855 W/m 16,1 km/h (3 Bft) 100,00 %
24.04.2021 13:20 13,8 C 18,9 C 16,7 C 57 % 1027,1 hPa 0,0 l/m 2 min 0 min 915 W/m 19,3 km/h (3 Bft) 100,00 %
24.04.2021 13:22 13,9 C 18,9 C 18,4 C 56 % 1027,1 hPa 0,0 l/m 2 min 0 min 916 W/m 19,3 km/h (3 Bft) 97,87 %
24.04.2021 13:24 13,9 C 18,9 C 18,9 C 57 % 1027,0 hPa 0,0 l/m 2 min 0 min 944 W/m 25,7 km/h (4 Bft) 100,00 %
24.04.2021 13:26 14,0 C 19,4 C 19,5 C 57 % 1027,0 hPa 0,0 l/m 2 min 0 min 948 W/m 9,7 km/h (2 Bft) 100,00 %
24.04.2021 13:28 14,2 C 20,0 C 20,0 C 57 % 1027,0 hPa 0,0 l/m 2 min 0 min 880 W/m 12,9 km/h (3 Bft) 100,00 %
24.04.2021 13:30 14,2 C 19,4 C 18,4 C 56 % 1027,1 hPa 0,0 l/m 2 min 0 min 773 W/m 22,5 km/h (4 Bft) 100,00 %
24.04.2021 13:32 14,2 C 18,3 C 18,4 C 53 % 1027,0 hPa 0,0 l/m 2 min 0 min 772 W/m 22,5 km/h (4 Bft) 97,87 %
24.04.2021 13:34 14,2 C 18,3 C 18,4 C 54 % 1027,0 hPa 0,0 l/m 2 min 0 min 751 W/m 19,3 km/h (3 Bft) 100,00 %
24.04.2021 13:36 14,2 C 18,3 C 18,4 C 54 % 1026,9 hPa 0,0 l/m 2 min 0 min 737 W/m 19,3 km/h (3 Bft) 100,00 %
24.04.2021 13:38 14,2 C 18,3 C 17,3 C 55 % 1027,0 hPa 0,0 l/m 2 min 0 min 766 W/m 19,3 km/h (3 Bft) 100,00 %
24.04.2021 13:40 14,1 C 17,8 C 16,7 C 54 % 1026,9 hPa 0,0 l/m 2 min 0 min 798 W/m 22,5 km/h (4 Bft) 97,87 %
24.04.2021 13:42 14,1 C 17,8 C 16,1 C 55 % 1027,0 hPa 0,0 l/m 2 min 0 min 926 W/m 19,3 km/h (3 Bft) 100,00 %
24.04.2021 13:44 14,1 C 18,9 C 15,6 C 55 % 1027,0 hPa 0,0 l/m 2 min 0 min 983 W/m 16,1 km/h (3 Bft) 100,00 %
24.04.2021 13:46 14,2 C 18,9 C 14,5 C 55 % 1026,9 hPa 0,0 l/m 2 min 0 min 892 W/m 22,5 km/h (4 Bft) 100,00 %
24.04.2021 13:48 14,2 C 18,3 C 14,5 C 54 % 1026,9 hPa 0,0 l/m 2 min 0 min 719 W/m 16,1 km/h (3 Bft) 100,00 %
24.04.2021 13:50 14,2 C 18,9 C 13,4 C 54 % 1026,8 hPa 0,0 l/m 2 min 0 min 754 W/m 16,1 km/h (3 Bft) 100,00 %
24.04.2021 13:52 14,2 C 18,9 C 13,4 C 54 % 1026,9 hPa 0,0 l/m 2 min 0 min 728 W/m 12,9 km/h (3 Bft) 95,74 %
24.04.2021 13:54 14,2 C 19,4 C 12,8 C 55 % 1026,8 hPa 0,0 l/m 2 min 0 min 832 W/m 12,9 km/h (3 Bft) 100,00 %
24.04.2021 13:56 14,2 C 20,0 C 12,8 C 55 % 1026,9 hPa 0,0 l/m 2 min 0 min 869 W/m 19,3 km/h (3 Bft) 100,00 %
24.04.2021 13:58 14,2 C 18,9 C 12,3 C 54 % 1026,9 hPa 0,0 l/m 2 min 0 min 874 W/m 19,3 km/h (3 Bft) 97,87 %
24.04.2021 14:00 14,2 C 18,9 C 12,3 C 54 % 1026,9 hPa 0,0 l/m 2 min 0 min 520 W/m 9,7 km/h (2 Bft) 100,00 %
24.04.2021 14:02 14,2 C 18,9 C 12,3 C 54 % 1026,8 hPa 0,0 l/m 0 min 0 min 374 W/m 9,7 km/h (2 Bft) 100,00 %
24.04.2021 14:04 14,2 C 18,9 C 12,3 C 53 % 1026,9 hPa 0,0 l/m 2 min 0 min 415 W/m 12,9 km/h (3 Bft) 100,00 %
24.04.2021 14:06 14,2 C 18,9 C 12,8 C 53 % 1026,9 hPa 0,0 l/m 2 min 0 min 789 W/m 16,1 km/h (3 Bft) 100,00 %
24.04.2021 14:08 14,4 C 18,9 C 12,8 C 53 % 1026,8 hPa 0,0 l/m 2 min 0 min 932 W/m 16,1 km/h (3 Bft) 100,00 %
24.04.2021 14:10 14,5 C 20,0 C 12,3 C 53 % 1026,7 hPa 0,0 l/m 2 min 0 min 935 W/m 16,1 km/h (3 Bft) 100,00 %
24.04.2021 14:12 14,6 C 19,4 C 12,3 C 51 % 1026,7 hPa 0,0 l/m 2 min 0 min 902 W/m 22,5 km/h (4 Bft) 100,00 %
24.04.2021 14:14 14,6 C 20,0 C 12,3 C 51 % 1026,8 hPa 0,0 l/m 2 min 0 min 944 W/m 12,9 km/h (3 Bft) 100,00 %
24.04.2021 14:16 14,7 C 19,4 C 12,3 C 51 % 1026,5 hPa 0,0 l/m 2 min 0 min 932 W/m 25,7 km/h (4 Bft) 100,00 %
24.04.2021 14:18 14,8 C 19,4 C 12,3 C 51 % 1026,7 hPa 0,0 l/m 2 min 0 min 946 W/m 29,0 km/h (5 Bft) 100,00 %
24.04.2021 14:20 14,9 C 19,4 C 12,3 C 50 % 1026,6 hPa 0,0 l/m 2 min 0 min 944 W/m 19,3 km/h (3 Bft) 100,00 %
24.04.2021 14:22 14,9 C 20,0 C 12,8 C 52 % 1026,5 hPa 0,0 l/m 2 min 0 min 918 W/m 16,1 km/h (3 Bft) 97,87 %
24.04.2021 14:24 15,1 C 20,6 C 12,8 C 52 % 1026,6 hPa 0,0 l/m 2 min 0 min 847 W/m 19,3 km/h (3 Bft) 100,00 %
24.04.2021 14:26 15,1 C 20,0 C 12,8 C 51 % 1026,6 hPa 0,0 l/m 2 min 0 min 821 W/m 22,5 km/h (4 Bft) 100,00 %
24.04.2021 14:28 15,1 C 19,4 C 12,8 C 50 % 1026,6 hPa 0,0 l/m 2 min 0 min 742 W/m 22,5 km/h (4 Bft) 100,00 %
24.04.2021 14:30 15,1 C 19,4 C 12,8 C 50 % 1026,6 hPa 0,0 l/m 2 min 0 min 820 W/m 16,1 km/h (3 Bft) 97,83 %
24.04.2021 14:32 15,2 C 20,6 C 12,8 C 51 % 1026,6 hPa 0,0 l/m 2 min 0 min 859 W/m 19,3 km/h (3 Bft) 100,00 %
24.04.2021 14:34 15,3 C 20,6 C 12,8 C 52 % 1026,5 hPa 0,0 l/m 2 min 0 min 806 W/m 12,9 km/h (3 Bft) 100,00 %
24.04.2021 14:36 15,4 C 20,6 C 12,8 C 52 % 1026,5 hPa 0,0 l/m 2 min 0 min 705 W/m 16,1 km/h (3 Bft) 100,00 %
24.04.2021 14:38 15,4 C 20,0 C 12,8 C 51 % 1026,5 hPa 0,0 l/m 2 min 0 min 621 W/m 19,3 km/h (3 Bft) 100,00 %
24.04.2021 14:40 15,4 C 20,0 C 12,8 C 51 % 1026,5 hPa 0,0 l/m 2 min 0 min 843 W/m 12,9 km/h (3 Bft) 97,87 %
24.04.2021 14:42 15,4 C 20,6 C 12,8 C 52 % 1026,5 hPa 0,0 l/m 2 min 0 min 881 W/m 12,9 km/h (3 Bft) 95,65 %
24.04.2021 14:44 15,4 C 20,0 C 12,8 C 51 % 1026,5 hPa 0,0 l/m 2 min 0 min 872 W/m 19,3 km/h (3 Bft) 95,74 %
24.04.2021 14:46 15,5 C 20,0 C 12,8 C 51 % 1026,5 hPa 0,0 l/m 2 min 0 min 836 W/m 16,1 km/h (3 Bft) 93,62 %
24.04.2021 14:48 15,5 C 19,4 C 12,8 C 49 % 1026,4 hPa 0,0 l/m 2 min 0 min 894 W/m 19,3 km/h (3 Bft) 95,74 %
24.04.2021 14:50 15,4 C 19,4 C 12,8 C 50 % 1026,4 hPa 0,0 l/m 2 min 0 min 888 W/m 6,4 km/h (2 Bft) 93,62 %
24.04.2021 14:52 15,4 C 19,4 C 12,8 C 52 % 1026,4 hPa 0,0 l/m 2 min 0 min 700 W/m 12,9 km/h (3 Bft) 93,62 %
24.04.2021 14:54 15,4 C 19,4 C 12,8 C 52 % 1026,4 hPa 0,0 l/m 2 min 0 min 550 W/m 16,1 km/h (3 Bft) 95,65 %
24.04.2021 14:56 15,3 C 19,4 C 12,8 C 52 % 1026,4 hPa 0,0 l/m 2 min 0 min 475 W/m 16,1 km/h (3 Bft) 95,74 %
24.04.2021 14:58 15,2 C 19,4 C 12,8 C 51 % 1026,3 hPa 0,0 l/m 2 min 0 min 588 W/m 25,7 km/h (4 Bft) 93,62 %
24.04.2021 15:00 15,2 C 19,4 C 12,8 C 53 % 1026,3 hPa 0,0 l/m 2 min 0 min 643 W/m 12,9 km/h (3 Bft) 93,62 %
24.04.2021 15:02 15,3 C 20,6 C 13,4 C 53 % 1026,3 hPa 0,0 l/m 2 min 0 min 798 W/m 16,1 km/h (3 Bft) 93,62 %
24.04.2021 15:04 15,4 C 20,0 C 13,4 C 53 % 1026,3 hPa 0,0 l/m 2 min 0 min 970 W/m 19,3 km/h (3 Bft) 95,65 %
24.04.2021 15:06 15,5 C 20,6 C 13,4 C 53 % 1026,2 hPa 0,0 l/m 2 min 0 min 798 W/m 9,7 km/h (2 Bft) 97,87 %
24.04.2021 15:08 15,6 C 20,6 C 13,4 C 53 % 1026,3 hPa 0,0 l/m 2 min 0 min 753 W/m 16,1 km/h (3 Bft) 95,74 %
24.04.2021 15:10 15,6 C 19,4 C 13,4 C 51 % 1026,2 hPa 0,0 l/m 2 min 0 min 676 W/m 19,3 km/h (3 Bft) 95,74 %
24.04.2021 15:12 15,6 C 20,0 C 13,4 C 53 % 1026,2 hPa 0,0 l/m 2 min 0 min 623 W/m 12,9 km/h (3 Bft) 95,74 %
24.04.2021 15:14 15,7 C 21,1 C 13,4 C 53 % 1026,2 hPa 0,0 l/m 2 min 0 min 849 W/m 9,7 km/h (2 Bft) 93,62 %
24.04.2021 15:16 15,8 C 21,1 C 13,4 C 52 % 1026,2 hPa 0,0 l/m 2 min 0 min 857 W/m 16,1 km/h (3 Bft) 95,65 %
24.04.2021 15:18 15,8 C 20,6 C 13,4 C 50 % 1026,2 hPa 0,0 l/m 2 min 0 min 810 W/m 19,3 km/h (3 Bft) 95,74 %
24.04.2021 15:20 15,8 C 20,6 C 13,4 C 49 % 1026,2 hPa 0,0 l/m 2 min 0 min 814 W/m 12,9 km/h (3 Bft) 93,62 %
24.04.2021 15:22 15,9 C 21,7 C 13,4 C 51 % 1026,2 hPa 0,0 l/m 2 min 0 min 864 W/m 9,7 km/h (2 Bft) 93,62 %
24.04.2021 15:24 15,9 C 21,1 C 13,4 C 51 % 1026,2 hPa 0,0 l/m 2 min 0 min 826 W/m 19,3 km/h (3 Bft) 91,49 %
24.04.2021 15:26 16,0 C 20,6 C 13,4 C 50 % 1026,1 hPa 0,0 l/m 2 min 0 min 781 W/m 38,6 km/h (5 Bft) 91,49 %
24.04.2021 15:28 15,9 C 20,6 C 13,4 C 50 % 1026,2 hPa 0,0 l/m 2 min 0 min 753 W/m 19,3 km/h (3 Bft) 93,48 %
24.04.2021 15:30 15,9 C 19,4 C 13,4 C 50 % 1026,2 hPa 0,0 l/m 2 min 0 min 689 W/m 19,3 km/h (3 Bft) 91,49 %
24.04.2021 15:32 15,9 C 18,9 C 13,4 C 50 % 1026,1 hPa 0,0 l/m 2 min 0 min 687 W/m 16,1 km/h (3 Bft) 95,74 %
24.04.2021 15:34 15,8 C 18,9 C 13,4 C 50 % 1026,2 hPa 0,0 l/m 2 min 0 min 802 W/m 9,7 km/h (2 Bft) 95,74 %
24.04.2021 15:36 15,8 C 18,9 C 13,4 C 50 % 1026,1 hPa 0,0 l/m 2 min 0 min 721 W/m 16,1 km/h (3 Bft) 95,74 %
24.04.2021 15:38 15,8 C 19,4 C 13,4 C 51 % 1026,1 hPa 0,0 l/m 2 min 0 min 698 W/m 16,1 km/h (3 Bft) 97,87 %
24.04.2021 15:40 15,8 C 19,4 C 13,4 C 51 % 1026,1 hPa 0,0 l/m 2 min 0 min 759 W/m 22,5 km/h (4 Bft) 97,83 %
24.04.2021 15:42 15,8 C 20,6 C 13,4 C 51 % 1026,1 hPa 0,0 l/m 2 min 0 min 789 W/m 19,3 km/h (3 Bft) 97,87 %
24.04.2021 15:44 15,8 C 20,0 C 13,4 C 51 % 1026,1 hPa 0,0 l/m 2 min 0 min 705 W/m 25,7 km/h (4 Bft) 97,87 %
24.04.2021 15:46 15,8 C 20,6 C 13,4 C 51 % 1026,0 hPa 0,0 l/m 2 min 0 min 692 W/m 22,5 km/h (4 Bft) 97,87 %
24.04.2021 15:48 15,9 C 20,6 C 13,4 C 50 % 1026,0 hPa 0,0 l/m 2 min 0 min 804 W/m 22,5 km/h (4 Bft) 97,87 %
24.04.2021 15:50 15,8 C 21,7 C 13,4 C 51 % 1026,0 hPa 0,0 l/m 2 min 0 min 832 W/m 19,3 km/h (3 Bft) 97,87 %
24.04.2021 15:52 15,8 C 22,2 C 13,4 C 50 % 1026,0 hPa 0,0 l/m 2 min 0 min 838 W/m 16,1 km/h (3 Bft) 97,83 %
24.04.2021 15:54 15,9 C 23,3 C 13,4 C 51 % 1026,0 hPa 0,0 l/m 2 min 0 min 836 W/m 19,3 km/h (3 Bft) 97,87 %
24.04.2021 15:56 16,0 C 22,2 C 13,4 C 51 % 1026,0 hPa 0,0 l/m 2 min 0 min 828 W/m 19,3 km/h (3 Bft) 95,74 %
24.04.2021 15:58 16,0 C 22,2 C 13,4 C 50 % 1026,0 hPa 0,0 l/m 2 min 0 min 798 W/m 19,3 km/h (3 Bft) 97,87 %
24.04.2021 16:00 16,0 C 22,2 C 13,4 C 50 % 1025,9 hPa 0,0 l/m 2 min 0 min 835 W/m 16,1 km/h (3 Bft) 97,87 %
24.04.2021 16:02 16,1 C 22,8 C 13,9 C 51 % 1026,0 hPa 0,0 l/m 2 min 0 min 822 W/m 19,3 km/h (3 Bft) 95,74 %
24.04.2021 16:04 16,2 C 22,8 C 13,9 C 50 % 1025,9 hPa 0,0 l/m 2 min 0 min 790 W/m 19,3 km/h (3 Bft) 97,83 %
24.04.2021 16:06 16,2 C 22,2 C 13,9 C 49 % 1025,9 hPa 0,0 l/m 2 min 0 min 661 W/m 19,3 km/h (3 Bft) 97,87 %
24.04.2021 16:08 16,3 C 21,7 C 13,9 C 50 % 1026,0 hPa 0,0 l/m 2 min 0 min 657 W/m 25,7 km/h (4 Bft) 100,00 %
24.04.2021 16:10 16,2 C 20,6 C 13,9 C 49 % 1026,0 hPa 0,0 l/m 2 min 0 min 706 W/m 22,5 km/h (4 Bft) 97,87 %
24.04.2021 16:12 16,1 C 21,1 C 13,9 C 49 % 1025,9 hPa 0,0 l/m 2 min 0 min 677 W/m 16,1 km/h (3 Bft) 97,87 %
24.04.2021 16:14 16,1 C 22,8 C 13,9 C 50 % 1025,9 hPa 0,0 l/m 2 min 0 min 795 W/m 19,3 km/h (3 Bft) 100,00 %
24.04.2021 16:16 16,1 C 23,3 C 13,9 C 50 % 1025,9 hPa 0,0 l/m 2 min 0 min 852 W/m 22,5 km/h (4 Bft) 97,83 %
24.04.2021 16:18 16,2 C 22,8 C 13,9 C 49 % 1025,9 hPa 0,0 l/m 2 min 0 min 824 W/m 16,1 km/h (3 Bft) 100,00 %
24.04.2021 16:20 16,3 C 23,9 C 14,5 C 50 % 1025,8 hPa 0,0 l/m 2 min 0 min 796 W/m 12,9 km/h (3 Bft) 100,00 %
24.04.2021 16:22 16,4 C 25,0 C 14,5 C 51 % 1025,8 hPa 0,0 l/m 2 min 0 min 797 W/m 12,9 km/h (3 Bft) 100,00 %
24.04.2021 16:24 16,5 C 24,4 C 14,5 C 49 % 1025,8 hPa 0,0 l/m 2 min 0 min 785 W/m 16,1 km/h (3 Bft) 100,00 %
24.04.2021 16:26 16,5 C 23,3 C 14,5 C 49 % 1025,8 hPa 0,0 l/m 2 min 0 min 731 W/m 22,5 km/h (4 Bft) 100,00 %
24.04.2021 16:28 16,6 C 23,9 C 14,5 C 49 % 1025,7 hPa 0,0 l/m 2 min 0 min 789 W/m 16,1 km/h (3 Bft) 97,83 %
24.04.2021 16:30 16,6 C 23,3 C 14,5 C 48 % 1025,7 hPa 0,0 l/m 2 min 0 min 777 W/m 22,5 km/h (4 Bft) 100,00 %
24.04.2021 16:32 16,5 C 23,3 C 14,5 C 49 % 1025,7 hPa 0,0 l/m 2 min 0 min 693 W/m 16,1 km/h (3 Bft) 100,00 %
24.04.2021 16:34 16,5 C 23,3 C 14,5 C 49 % 1025,7 hPa 0,0 l/m 2 min 0 min 720 W/m 19,3 km/h (3 Bft) 100,00 %
24.04.2021 16:36 16,5 C 23,3 C 14,5 C 49 % 1025,7 hPa 0,0 l/m 2 min 0 min 785 W/m 22,5 km/h (4 Bft) 97,87 %
24.04.2021 16:38 16,4 C 22,8 C 14,5 C 49 % 1025,7 hPa 0,0 l/m 2 min 0 min 769 W/m 19,3 km/h (3 Bft) 100,00 %
24.04.2021 16:40 16,4 C 21,7 C 14,5 C 48 % 1025,7 hPa 0,0 l/m 2 min 0 min 686 W/m 22,5 km/h (4 Bft) 100,00 %
24.04.2021 16:42 16,3 C 22,2 C 13,9 C 49 % 1025,7 hPa 0,0 l/m 2 min 0 min 639 W/m 12,9 km/h (3 Bft) 97,87 %
24.04.2021 16:44 16,3 C 23,3 C 14,5 C 50 % 1025,7 hPa 0,0 l/m 2 min 0 min 749 W/m 9,7 km/h (2 Bft) 100,00 %
24.04.2021 16:46 16,3 C 23,9 C 14,5 C 49 % 1025,7 hPa 0,0 l/m 2 min 0 min 733 W/m 32,2 km/h (5 Bft) 100,00 %
24.04.2021 16:48 16,3 C 22,8 C 14,5 C 49 % 1025,7 hPa 0,0 l/m 2 min 0 min 623 W/m 41,8 km/h (6 Bft) 100,00 %
24.04.2021 16:50 16,3 C 23,3 C 14,5 C 50 % 1025,7 hPa 0,0 l/m 2 min 0 min 675 W/m 16,1 km/h (3 Bft) 100,00 %
24.04.2021 16:52 16,3 C 23,3 C 14,5 C 49 % 1025,7 hPa 0,0 l/m 2 min 0 min 724 W/m 25,7 km/h (4 Bft) 100,00 %
24.04.2021 16:54 16,3 C 24,4 C 15,0 C 49 % 1025,7 hPa 0,0 l/m 2 min 0 min 715 W/m 9,7 km/h (2 Bft) 100,00 %
24.04.2021 16:56 16,4 C 23,9 C 15,0 C 49 % 1025,6 hPa 0,0 l/m 2 min 0 min 713 W/m 19,3 km/h (3 Bft) 100,00 %
24.04.2021 16:58 16,4 C 23,3 C 15,0 C 49 % 1025,6 hPa 0,0 l/m 2 min 0 min 634 W/m 25,7 km/h (4 Bft) 100,00 %
24.04.2021 17:00 16,4 C 22,8 C 14,5 C 49 % 1025,7 hPa 0,0 l/m 2 min 0 min 573 W/m 19,3 km/h (3 Bft) 100,00 %
24.04.2021 17:02 16,3 C 21,7 C 13,9 C 49 % 1025,7 hPa 0,0 l/m 2 min 0 min 578 W/m 32,2 km/h (5 Bft) 97,83 %
24.04.2021 17:04 16,1 C 21,1 C 13,9 C 49 % 1025,7 hPa 0,0 l/m 2 min 0 min 553 W/m 22,5 km/h (4 Bft) 100,00 %
24.04.2021 17:06 16,1 C 21,7 C 13,9 C 50 % 1025,7 hPa 0,0 l/m 2 min 0 min 640 W/m 25,7 km/h (4 Bft) 100,00 %
24.04.2021 17:08 16,0 C 21,7 C 13,9 C 50 % 1025,7 hPa 0,0 l/m 2 min 0 min 619 W/m 22,5 km/h (4 Bft) 100,00 %
24.04.2021 17:10 16,0 C 21,1 C 13,9 C 50 % 1025,7 hPa 0,0 l/m 2 min 0 min 614 W/m 25,7 km/h (4 Bft) 100,00 %
24.04.2021 17:12 15,9 C 21,1 C 13,4 C 49 % 1025,7 hPa 0,0 l/m 2 min 0 min 629 W/m 22,5 km/h (4 Bft) 100,00 %
24.04.2021 17:14 15,8 C 21,1 C 13,4 C 52 % 1025,6 hPa 0,0 l/m 2 min 0 min 610 W/m 19,3 km/h (3 Bft) 100,00 %
24.04.2021 17:16 15,8 C 21,7 C 13,9 C 53 % 1025,6 hPa 0,0 l/m 2 min 0 min 621 W/m 12,9 km/h (3 Bft) 100,00 %
24.04.2021 17:18 15,8 C 21,7 C 13,9 C 51 % 1025,6 hPa 0,0 l/m 2 min 0 min 593 W/m 16,1 km/h (3 Bft) 97,87 %
24.04.2021 17:20 15,8 C 21,1 C 13,9 C 52 % 1025,6 hPa 0,0 l/m 2 min 0 min 534 W/m 19,3 km/h (3 Bft) 100,00 %
24.04.2021 17:22 15,6 C 20,0 C 13,4 C 51 % 1025,6 hPa 0,0 l/m 2 min 0 min 497 W/m 32,2 km/h (5 Bft) 100,00 %
24.04.2021 17:24 15,5 C 20,0 C 13,4 C 51 % 1025,6 hPa 0,0 l/m 2 min 0 min 586 W/m 22,5 km/h (4 Bft) 100,00 %
24.04.2021 17:26 15,5 C 20,6 C 13,9 C 51 % 1025,6 hPa 0,0 l/m 2 min 0 min 604 W/m 19,3 km/h (3 Bft) 97,83 %
24.04.2021 17:28 15,4 C 20,6 C 13,9 C 52 % 1025,6 hPa 0,0 l/m 2 min 0 min 580 W/m 25,7 km/h (4 Bft) 100,00 %
24.04.2021 17:30 15,4 C 20,6 C 13,9 C 51 % 1025,6 hPa 0,0 l/m 2 min 0 min 587 W/m 19,3 km/h (3 Bft) 100,00 %
24.04.2021 17:32 15,5 C 20,6 C 13,9 C 51 % 1025,6 hPa 0,0 l/m 2 min 0 min 563 W/m 19,3 km/h (3 Bft) 97,87 %
24.04.2021 17:34 15,4 C 20,0 C 13,4 C 51 % 1025,5 hPa 0,0 l/m 2 min 0 min 549 W/m 16,1 km/h (3 Bft) 95,74 %
24.04.2021 17:36 15,4 C 19,4 C 13,4 C 52 % 1025,5 hPa 0,0 l/m 2 min 0 min 455 W/m 22,5 km/h (4 Bft) 97,87 %
24.04.2021 17:38 15,3 C 19,4 C 13,4 C 52 % 1025,5 hPa 0,0 l/m 2 min 0 min 445 W/m 12,9 km/h (3 Bft) 95,65 %
24.04.2021 17:40 15,3 C 19,4 C 13,4 C 51 % 1025,4 hPa 0,0 l/m 2 min 0 min 483 W/m 19,3 km/h (3 Bft) 97,87 %
24.04.2021 17:42 15,2 C 18,9 C 13,4 C 51 % 1025,4 hPa 0,0 l/m 2 min 0 min 460 W/m 19,3 km/h (3 Bft) 97,87 %
24.04.2021 17:44 15,1 C 18,9 C 13,4 C 52 % 1025,4 hPa 0,0 l/m 2 min 0 min 404 W/m 19,3 km/h (3 Bft) 97,87 %
24.04.2021 17:46 15,1 C 18,9 C 13,4 C 52 % 1025,4 hPa 0,0 l/m 2 min 0 min 432 W/m 22,5 km/h (4 Bft) 95,74 %
24.04.2021 17:48 15,1 C 18,9 C 13,4 C 51 % 1025,4 hPa 0,0 l/m 2 min 0 min 445 W/m 19,3 km/h (3 Bft) 97,87 %
24.04.2021 17:50 15,1 C 18,9 C 13,4 C 52 % 1025,4 hPa 0,0 l/m 2 min 0 min 403 W/m 19,3 km/h (3 Bft) 95,65 %
24.04.2021 17:52 15,1 C 18,9 C 13,4 C 53 % 1025,4 hPa 0,0 l/m 2 min 0 min 409 W/m 12,9 km/h (3 Bft) 97,87 %
24.04.2021 17:54 15,1 C 18,9 C 13,4 C 52 % 1025,3 hPa 0,0 l/m 2 min 0 min 400 W/m 16,1 km/h (3 Bft) 95,74 %
24.04.2021 17:56 15,1 C 18,3 C 13,4 C 52 % 1025,4 hPa 0,0 l/m 2 min 0 min 352 W/m 19,3 km/h (3 Bft) 97,87 %
24.04.2021 17:58 15,0 C 18,3 C 12,8 C 52 % 1025,4 hPa 0,0 l/m 2 min 0 min 351 W/m 16,1 km/h (3 Bft) 97,87 %
24.04.2021 18:00 14,9 C 17,8 C 12,8 C 52 % 1025,3 hPa 0,0 l/m 2 min 0 min 350 W/m 12,9 km/h (3 Bft) 95,74 %
24.04.2021 18:02 14,8 C 17,2 C 12,3 C 51 % 1025,4 hPa 0,0 l/m 2 min 0 min 311 W/m 22,5 km/h (4 Bft) 95,65 %
24.04.2021 18:04 14,7 C 17,2 C 12,8 C 53 % 1025,4 hPa 0,0 l/m 2 min 0 min 274 W/m 12,9 km/h (3 Bft) 93,62 %
24.04.2021 18:08 14,4 C 15,6 C 12,3 C 52 % 1025,4 hPa 0,0 l/m 4 min 0 min 243 W/m 19,3 km/h (3 Bft) 93,62 %
24.04.2021 18:10 14,2 C 15,0 C 11,7 C 53 % 1025,4 hPa 0,0 l/m 2 min 0 min 206 W/m 22,5 km/h (4 Bft) 94,29 %
24.04.2021 18:12 14,2 C 14,4 C 11,1 C 53 % 1025,4 hPa 0,0 l/m 2 min 0 min 196 W/m 25,7 km/h (4 Bft) 91,49 %
24.04.2021 18:14 14,0 C 15,0 C 11,1 C 54 % 1025,4 hPa 0,0 l/m 2 min 0 min 194 W/m 19,3 km/h (3 Bft) 93,10 %
24.04.2021 18:16 13,9 C 15,0 C 11,1 C 54 % 1025,3 hPa 0,0 l/m 2 min 0 min 241 W/m 25,7 km/h (4 Bft) 93,62 %
24.04.2021 18:18 13,9 C 15,6 C 11,1 C 55 % 1025,3 hPa 0,0 l/m 2 min 0 min 233 W/m 22,5 km/h (4 Bft) 93,62 %
24.04.2021 18:20 13,8 C 15,6 C 11,1 C 54 % 1025,3 hPa 0,0 l/m 2 min 0 min 231 W/m 16,1 km/h (3 Bft) 95,74 %
24.04.2021 18:22 13,8 C 15,6 C 11,7 C 55 % 1025,2 hPa 0,0 l/m 2 min 0 min 231 W/m 16,1 km/h (3 Bft) 95,74 %
24.04.2021 18:24 13,7 C 15,6 C 11,7 C 55 % 1025,3 hPa 0,0 l/m 2 min 0 min 228 W/m 16,1 km/h (3 Bft) 95,74 %
24.04.2021 18:26 13,8 C 16,1 C 11,7 C 56 % 1025,2 hPa 0,0 l/m 2 min 0 min 255 W/m 22,5 km/h (4 Bft) 95,65 %
24.04.2021 18:28 13,7 C 16,1 C 11,7 C 55 % 1025,2 hPa 0,0 l/m 2 min 0 min 267 W/m 19,3 km/h (3 Bft) 95,74 %
24.04.2021 18:30 13,7 C 16,1 C 11,7 C 55 % 1025,2 hPa 0,0 l/m 2 min 0 min 224 W/m 19,3 km/h (3 Bft) 97,87 %
24.04.2021 18:32 13,7 C 16,1 C 11,1 C 55 % 1025,3 hPa 0,0 l/m 2 min 0 min 189 W/m 19,3 km/h (3 Bft) 95,74 %
24.04.2021 18:34 13,6 C 15,6 C 11,1 C 55 % 1025,3 hPa 0,0 l/m 2 min 0 min 183 W/m 12,9 km/h (3 Bft) 95,74 %
24.04.2021 18:36 13,6 C 15,6 C 11,1 C 55 % 1025,3 hPa 0,0 l/m 2 min 0 min 185 W/m 16,1 km/h (3 Bft) 95,74 %
24.04.2021 18:38 13,5 C 15,0 C 11,1 C 55 % 1025,3 hPa 0,0 l/m 2 min 0 min 180 W/m 19,3 km/h (3 Bft) 93,48 %
24.04.2021 18:40 13,5 C 14,4 C 10,6 C 55 % 1025,3 hPa 0,0 l/m 2 min 0 min 155 W/m 16,1 km/h (3 Bft) 95,74 %
24.04.2021 18:42 13,5 C 14,4 C 11,1 C 55 % 1025,3 hPa 0,0 l/m 2 min 0 min 171 W/m 16,1 km/h (3 Bft) 97,87 %
24.04.2021 18:44 13,5 C 14,4 C 11,1 C 56 % 1025,3 hPa 0,0 l/m 2 min 0 min 204 W/m 19,3 km/h (3 Bft) 97,87 %
24.04.2021 18:46 13,4 C 13,9 C 10,6 C 56 % 1025,3 hPa 0,0 l/m 2 min 0 min 184 W/m 19,3 km/h (3 Bft) 97,87 %
24.04.2021 18:48 13,4 C 13,9 C 10,6 C 55 % 1025,3 hPa 0,0 l/m 2 min 0 min 183 W/m 16,1 km/h (3 Bft) 97,87 %
24.04.2021 18:50 13,3 C 13,9 C 10,6 C 55 % 1025,2 hPa 0,0 l/m 2 min 0 min 183 W/m 22,5 km/h (4 Bft) 97,83 %
24.04.2021 18:52 13,3 C 13,9 C 10,6 C 56 % 1025,2 hPa 0,0 l/m 2 min 0 min 166 W/m 19,3 km/h (3 Bft) 97,87 %
24.04.2021 18:54 13,3 C 13,3 C 10,6 C 56 % 1025,2 hPa 0,0 l/m 2 min 0 min 162 W/m 19,3 km/h (3 Bft) 97,87 %
24.04.2021 18:56 13,1 C 13,3 C 10,6 C 55 % 1025,2 hPa 0,0 l/m 2 min 0 min 144 W/m 25,7 km/h (4 Bft) 97,87 %
24.04.2021 18:58 13,1 C 13,3 C 10,6 C 55 % 1025,2 hPa 0,0 l/m 0 min 0 min 125 W/m 12,9 km/h (3 Bft) 97,87 %
24.04.2021 19:00 13,1 C 13,3 C 10,6 C 55 % 1025,2 hPa 0,0 l/m 0 min 0 min 123 W/m 19,3 km/h (3 Bft) 100,00 %
24.04.2021 19:02 13,0 C 13,3 C 10,6 C 55 % 1025,2 hPa 0,0 l/m 0 min 0 min 121 W/m 22,5 km/h (4 Bft) 96,67 %
24.04.2021 19:04 13,0 C 13,3 C 10,6 C 56 % 1025,3 hPa 0,0 l/m 0 min 0 min 118 W/m 16,1 km/h (3 Bft) 100,00 %
24.04.2021 19:06 13,0 C 13,3 C 10,6 C 56 % 1025,3 hPa 0,0 l/m 0 min 0 min 113 W/m 12,9 km/h (3 Bft) 100,00 %
24.04.2021 19:08 13,0 C 13,3 C 10,0 C 56 % 1025,3 hPa 0,0 l/m 0 min 0 min 108 W/m 16,1 km/h (3 Bft) 100,00 %
24.04.2021 19:10 13,0 C 13,3 C 10,6 C 56 % 1025,3 hPa 0,0 l/m 0 min 0 min 102 W/m 16,1 km/h (3 Bft) 100,00 %
24.04.2021 19:12 13,0 C 13,3 C 10,0 C 55 % 1025,3 hPa 0,0 l/m 0 min 0 min 96 W/m 16,1 km/h (3 Bft) 100,00 %
24.04.2021 19:14 13,0 C 13,3 C 10,0 C 56 % 1025,3 hPa 0,0 l/m 0 min 0 min 90 W/m 22,5 km/h (4 Bft) 97,83 %
24.04.2021 19:16 12,9 C 12,8 C 10,0 C 55 % 1025,2 hPa 0,0 l/m 0 min 0 min 81 W/m 22,5 km/h (4 Bft) 100,00 %
24.04.2021 19:18 12,9 C 12,8 C 10,0 C 56 % 1025,3 hPa 0,0 l/m 0 min 0 min 76 W/m 16,1 km/h (3 Bft) 100,00 %
24.04.2021 19:20 12,9 C 12,8 C 10,0 C 55 % 1025,3 hPa 0,0 l/m 0 min 0 min 73 W/m 25,7 km/h (4 Bft) 100,00 %
24.04.2021 19:22 12,9 C 12,8 C 9,5 C 55 % 1025,3 hPa 0,0 l/m 0 min 0 min 69 W/m 22,5 km/h (4 Bft) 100,00 %
24.04.2021 19:24 12,8 C 12,2 C 9,5 C 55 % 1025,3 hPa 0,0 l/m 0 min 0 min 67 W/m 12,9 km/h (3 Bft) 97,87 %
24.04.2021 19:26 12,6 C 12,2 C 9,5 C 55 % 1025,3 hPa 0,0 l/m 0 min 0 min 67 W/m 16,1 km/h (3 Bft) 100,00 %
24.04.2021 19:28 12,6 C 12,2 C 9,5 C 55 % 1025,4 hPa 0,0 l/m 0 min 0 min 66 W/m 16,1 km/h (3 Bft) 100,00 %
24.04.2021 19:30 12,6 C 12,2 C 9,5 C 55 % 1025,4 hPa 0,0 l/m 0 min 0 min 65 W/m 25,7 km/h (4 Bft) 100,00 %
24.04.2021 19:32 12,5 C 12,2 C 9,5 C 55 % 1025,3 hPa 0,0 l/m 0 min 0 min 64 W/m 16,1 km/h (3 Bft) 100,00 %
24.04.2021 19:34 12,5 C 12,2 C 9,5 C 55 % 1025,3 hPa 0,0 l/m 0 min 0 min 62 W/m 19,3 km/h (3 Bft) 100,00 %
24.04.2021 19:36 12,5 C 12,2 C 9,5 C 55 % 1025,3 hPa 0,0 l/m 0 min 0 min 62 W/m 32,2 km/h (5 Bft) 97,83 %
24.04.2021 19:38 12,5 C 12,2 C 9,5 C 55 % 1025,3 hPa 0,0 l/m 0 min 0 min 62 W/m 16,1 km/h (3 Bft) 100,00 %
24.04.2021 19:40 12,4 C 12,2 C 9,5 C 55 % 1025,3 hPa 0,0 l/m 0 min 0 min 62 W/m 9,7 km/h (2 Bft) 100,00 %
24.04.2021 19:42 12,4 C 12,2 C 9,5 C 55 % 1025,3 hPa 0,0 l/m 0 min 0 min 63 W/m 16,1 km/h (3 Bft) 100,00 %
24.04.2021 19:44 12,4 C 12,2 C 9,5 C 56 % 1025,3 hPa 0,0 l/m 0 min 0 min 62 W/m 9,7 km/h (2 Bft) 100,00 %
24.04.2021 19:46 12,3 C 12,2 C 9,5 C 55 % 1025,4 hPa 0,0 l/m 0 min 0 min 60 W/m 12,9 km/h (3 Bft) 97,87 %
24.04.2021 19:48 12,3 C 12,2 C 9,5 C 56 % 1025,4 hPa 0,0 l/m 0 min 0 min 55 W/m 19,3 km/h (3 Bft) 100,00 %
24.04.2021 19:50 12,3 C 11,7 C 9,5 C 55 % 1025,4 hPa 0,0 l/m 0 min 0 min 52 W/m 19,3 km/h (3 Bft) 97,83 %
24.04.2021 19:52 12,3 C 11,7 C 9,5 C 55 % 1025,3 hPa 0,0 l/m 0 min 0 min 49 W/m 9,7 km/h (2 Bft) 100,00 %
24.04.2021 19:54 12,3 C 11,7 C 9,5 C 55 % 1025,3 hPa 0,0 l/m 0 min 0 min 49 W/m 6,4 km/h (2 Bft) 100,00 %
24.04.2021 19:56 12,3 C 11,7 C 9,5 C 55 % 1025,3 hPa 0,0 l/m 0 min 0 min 49 W/m 12,9 km/h (3 Bft) 100,00 %
24.04.2021 19:58 12,3 C 11,7 C 9,5 C 55 % 1025,3 hPa 0,0 l/m 0 min 0 min 48 W/m 9,7 km/h (2 Bft) 100,00 %
24.04.2021 20:00 12,3 C 11,7 C 9,5 C 55 % 1025,3 hPa 0,0 l/m 0 min 0 min 46 W/m 6,4 km/h (2 Bft) 100,00 %
24.04.2021 20:02 12,3 C 11,7 C 9,5 C 55 % 1025,3 hPa 0,0 l/m 0 min 0 min 43 W/m 6,4 km/h (2 Bft) 100,00 %
24.04.2021 20:04 12,3 C 11,7 C 8,9 C 55 % 1025,3 hPa 0,0 l/m 0 min 0 min 40 W/m 12,9 km/h (3 Bft) 100,00 %
24.04.2021 20:06 12,2 C 11,7 C 8,9 C 55 % 1025,2 hPa 0,0 l/m 0 min 0 min 38 W/m 16,1 km/h (3 Bft) 51,22 %
24.04.2021 20:08 12,2 C 11,7 C 8,9 C 55 % 1025,2 hPa 0,0 l/m 0 min 0 min 33 W/m 12,9 km/h (3 Bft) 100,00 %
24.04.2021 20:10 12,1 C 11,7 C 8,9 C 55 % 1025,3 hPa 0,0 l/m 0 min 0 min 31 W/m 3,2 km/h (1 Bft) 100,00 %
24.04.2021 20:12 12,1 C 11,7 C 8,9 C 54 % 1025,3 hPa 0,0 l/m 0 min 0 min 29 W/m 12,9 km/h (3 Bft) 97,83 %
24.04.2021 20:14 12,1 C 11,7 C 8,9 C 55 % 1025,2 hPa 0,0 l/m 0 min 0 min 27 W/m 12,9 km/h (3 Bft) 100,00 %
24.04.2021 20:16 12,1 C 11,7 C 8,9 C 55 % 1025,2 hPa 0,0 l/m 0 min 0 min 25 W/m 12,9 km/h (3 Bft) 100,00 %
24.04.2021 20:18 12,1 C 11,7 C 8,9 C 54 % 1025,2 hPa 0,0 l/m 0 min 0 min 22 W/m 12,9 km/h (3 Bft) 97,87 %
24.04.2021 20:20 12,0 C 11,1 C 8,9 C 54 % 1025,2 hPa 0,0 l/m 0 min 0 min 19 W/m 9,7 km/h (2 Bft) 97,87 %
24.04.2021 20:22 12,0 C 11,1 C 8,9 C 54 % 1025,2 hPa 0,0 l/m 0 min 0 min 17 W/m 6,4 km/h (2 Bft) 97,87 %
24.04.2021 20:24 12,0 C 11,1 C 8,9 C 55 % 1025,2 hPa 0,0 l/m 0 min 0 min 16 W/m 12,9 km/h (3 Bft) 97,83 %
24.04.2021 20:26 11,9 C 11,1 C 8,9 C 55 % 1025,2 hPa 0,0 l/m 0 min 0 min 14 W/m 9,7 km/h (2 Bft) 93,62 %
24.04.2021 20:28 11,9 C 11,1 C 8,9 C 55 % 1025,2 hPa 0,0 l/m 0 min 0 min 12 W/m 16,1 km/h (3 Bft) 93,62 %
24.04.2021 20:30 11,9 C 11,1 C 8,4 C 55 % 1025,2 hPa 0,0 l/m 0 min 0 min 11 W/m 32,2 km/h (5 Bft) 95,74 %
24.04.2021 20:32 11,8 C 11,1 C 8,4 C 55 % 1025,2 hPa 0,0 l/m 0 min 0 min 10 W/m 9,7 km/h (2 Bft) 93,62 %
24.04.2021 20:34 11,8 C 11,1 C 8,4 C 55 % 1025,3 hPa 0,0 l/m 0 min 0 min 7 W/m 12,9 km/h (3 Bft) 91,49 %
24.04.2021 20:36 11,8 C 11,1 C 8,4 C 56 % 1025,3 hPa 0,0 l/m 0 min 0 min 7 W/m 29,0 km/h (5 Bft) 95,65 %
24.04.2021 20:38 11,7 C 11,1 C 8,4 C 56 % 1025,3 hPa 0,0 l/m 0 min 0 min 6 W/m 16,1 km/h (3 Bft) 95,74 %
24.04.2021 20:40 11,6 C 11,1 C 8,4 C 56 % 1025,4 hPa 0,0 l/m 0 min 0 min 5 W/m 32,2 km/h (5 Bft) 97,87 %
24.04.2021 20:42 11,6 C 10,6 C 8,4 C 56 % 1025,4 hPa 0,0 l/m 0 min 0 min 5 W/m 19,3 km/h (3 Bft) 95,74 %
24.04.2021 20:44 11,6 C 10,6 C 8,4 C 56 % 1025,4 hPa 0,0 l/m 0 min 0 min 5 W/m 25,7 km/h (4 Bft) 93,62 %
24.04.2021 20:46 11,5 C 10,6 C 8,4 C 56 % 1025,4 hPa 0,0 l/m 0 min 0 min 3 W/m 19,3 km/h (3 Bft) 95,74 %
24.04.2021 20:48 11,4 C 10,6 C 8,4 C 57 % 1025,4 hPa 0,0 l/m 0 min 0 min 0 W/m 19,3 km/h (3 Bft) 93,48 %
24.04.2021 20:50 11,4 C 10,6 C 7,8 C 57 % 1025,4 hPa 0,0 l/m 0 min 0 min 0 W/m 19,3 km/h (3 Bft) 95,74 %
24.04.2021 20:52 11,3 C 10,6 C 7,8 C 57 % 1025,4 hPa 0,0 l/m 0 min 0 min 0 W/m 22,5 km/h (4 Bft) 95,74 %
24.04.2021 20:54 11,2 C 10,6 C 7,8 C 57 % 1025,4 hPa 0,0 l/m 0 min 0 min 0 W/m 22,5 km/h (4 Bft) 95,74 %
24.04.2021 20:56 11,1 C 10,6 C 7,8 C 57 % 1025,5 hPa 0,0 l/m 0 min 0 min 0 W/m 22,5 km/h (4 Bft) 97,87 %
24.04.2021 20:58 11,1 C 10,0 C 7,8 C 57 % 1025,5 hPa 0,0 l/m 0 min 0 min 0 W/m 19,3 km/h (3 Bft) 95,74 %
24.04.2021 21:00 11,0 C 10,0 C 7,8 C 58 % 1025,5 hPa 0,0 l/m 0 min 0 min 0 W/m 25,7 km/h (4 Bft) 100,00 %
24.04.2021 21:02 11,0 C 10,0 C 7,8 C 58 % 1025,5 hPa 0,0 l/m 0 min 0 min 0 W/m 19,3 km/h (3 Bft) 93,62 %
24.04.2021 21:04 10,9 C 10,0 C 7,3 C 58 % 1025,6 hPa 0,0 l/m 0 min 0 min 0 W/m 19,3 km/h (3 Bft) 95,74 %
24.04.2021 21:06 10,8 C 10,0 C 7,3 C 58 % 1025,6 hPa 0,0 l/m 0 min 0 min 0 W/m 25,7 km/h (4 Bft) 97,87 %
24.04.2021 21:08 10,8 C 10,0 C 7,3 C 58 % 1025,6 hPa 0,0 l/m 0 min 0 min 0 W/m 19,3 km/h (3 Bft) 97,87 %
24.04.2021 21:10 10,7 C 10,0 C 7,3 C 58 % 1025,6 hPa 0,0 l/m 0 min 0 min 0 W/m 16,1 km/h (3 Bft) 97,87 %
24.04.2021 21:12 10,6 C 10,0 C 7,3 C 58 % 1025,6 hPa 0,0 l/m 0 min 0 min 0 W/m 32,2 km/h (5 Bft) 95,65 %
24.04.2021 21:14 10,5 C 10,0 C 7,3 C 58 % 1025,7 hPa 0,0 l/m 0 min 0 min 0 W/m 16,1 km/h (3 Bft) 97,87 %
24.04.2021 21:16 10,5 C 9,4 C 7,3 C 58 % 1025,7 hPa 0,0 l/m 0 min 0 min 0 W/m 22,5 km/h (4 Bft) 97,87 %
24.04.2021 21:18 10,5 C 9,4 C 7,3 C 59 % 1025,7 hPa 0,0 l/m 0 min 0 min 0 W/m 22,5 km/h (4 Bft) 95,74 %
24.04.2021 21:20 10,4 C 9,4 C 7,3 C 59 % 1025,7 hPa 0,0 l/m 0 min 0 min 0 W/m 12,9 km/h (3 Bft) 97,87 %
24.04.2021 21:22 10,4 C 9,4 C 7,3 C 59 % 1025,8 hPa 0,0 l/m 0 min 0 min 0 W/m 12,9 km/h (3 Bft) 97,87 %
24.04.2021 21:24 10,4 C 9,4 C 7,3 C 59 % 1025,8 hPa 0,0 l/m 0 min 0 min 0 W/m 25,7 km/h (4 Bft) 100,00 %
24.04.2021 21:26 10,3 C 9,4 C 7,3 C 58 % 1025,8 hPa 0,0 l/m 0 min 0 min 0 W/m 9,7 km/h (2 Bft) 100,00 %
24.04.2021 21:28 10,3 C 9,4 C 6,7 C 59 % 1025,8 hPa 0,0 l/m 0 min 0 min 0 W/m 22,5 km/h (4 Bft) 97,87 %
24.04.2021 21:30 10,3 C 9,4 C 6,7 C 59 % 1025,8 hPa 0,0 l/m 0 min 0 min 0 W/m 22,5 km/h (4 Bft) 100,00 %
24.04.2021 21:32 10,2 C 9,4 C 6,7 C 59 % 1025,8 hPa 0,0 l/m 0 min 0 min 0 W/m 16,1 km/h (3 Bft) 95,74 %
24.04.2021 21:34 10,1 C 9,4 C 6,7 C 59 % 1025,9 hPa 0,0 l/m 0 min 0 min 0 W/m 12,9 km/h (3 Bft) 100,00 %
24.04.2021 21:36 10,1 C 9,4 C 6,7 C 59 % 1025,8 hPa 0,0 l/m 0 min 0 min 0 W/m 19,3 km/h (3 Bft) 95,65 %
24.04.2021 21:38 10,1 C 9,4 C 6,7 C 60 % 1025,8 hPa 0,0 l/m 0 min 0 min 0 W/m 16,1 km/h (3 Bft) 100,00 %
24.04.2021 21:40 10,1 C 9,4 C 6,7 C 60 % 1025,8 hPa 0,0 l/m 0 min 0 min 0 W/m 16,1 km/h (3 Bft) 100,00 %
24.04.2021 21:42 10,0 C 9,4 C 6,7 C 60 % 1025,9 hPa 0,0 l/m 0 min 0 min 0 W/m 12,9 km/h (3 Bft) 100,00 %
24.04.2021 21:44 10,0 C 9,4 C 6,7 C 60 % 1025,9 hPa 0,0 l/m 0 min 0 min 0 W/m 9,7 km/h (2 Bft) 97,87 %
24.04.2021 21:46 10,0 C 8,9 C 6,7 C 60 % 1025,8 hPa 0,0 l/m 0 min 0 min 0 W/m 12,9 km/h (3 Bft) 97,87 %
24.04.2021 21:48 9,9 C 8,9 C 6,7 C 60 % 1025,9 hPa 0,0 l/m 0 min 0 min 0 W/m 16,1 km/h (3 Bft) 100,00 %
24.04.2021 21:50 9,9 C 8,9 C 6,7 C 60 % 1025,9 hPa 0,0 l/m 0 min 0 min 0 W/m 19,3 km/h (3 Bft) 100,00 %
24.04.2021 21:52 9,9 C 8,9 C 6,7 C 61 % 1025,9 hPa 0,0 l/m 0 min 0 min 0 W/m 19,3 km/h (3 Bft) 97,87 %
24.04.2021 21:54 9,8 C 8,9 C 6,7 C 61 % 1025,9 hPa 0,0 l/m 0 min 0 min 0 W/m 16,1 km/h (3 Bft) 100,00 %
24.04.2021 21:56 9,8 C 8,9 C 6,7 C 61 % 1026,0 hPa 0,0 l/m 0 min 0 min 0 W/m 12,9 km/h (3 Bft) 97,87 %
24.04.2021 21:58 9,8 C 8,9 C 6,7 C 61 % 1026,0 hPa 0,0 l/m 0 min 0 min 0 W/m 16,1 km/h (3 Bft) 100,00 %
24.04.2021 22:00 9,7 C 8,9 C 6,7 C 61 % 1026,0 hPa 0,0 l/m 0 min 0 min 0 W/m 12,9 km/h (3 Bft) 100,00 %
24.04.2021 22:02 9,7 C 8,9 C 6,7 C 61 % 1026,0 hPa 0,0 l/m 0 min 0 min 0 W/m 19,3 km/h (3 Bft) 100,00 %
24.04.2021 22:04 9,7 C 8,9 C 6,7 C 61 % 1026,0 hPa 0,0 l/m 0 min 0 min 0 W/m 12,9 km/h (3 Bft) 56,52 %
24.04.2021 22:06 9,6 C 8,9 C 6,1 C 61 % 1026,0 hPa 0,0 l/m 0 min 0 min 0 W/m 12,9 km/h (3 Bft) 97,87 %
24.04.2021 22:08 9,6 C 8,9 C 6,1 C 61 % 1026,1 hPa 0,0 l/m 0 min 0 min 0 W/m 12,9 km/h (3 Bft) 97,87 %
24.04.2021 22:10 9,6 C 8,9 C 6,1 C 61 % 1026,0 hPa 0,0 l/m 0 min 0 min 0 W/m 12,9 km/h (3 Bft) 97,87 %
24.04.2021 22:12 9,5 C 8,9 C 6,1 C 61 % 1026,1 hPa 0,0 l/m 0 min 0 min 0 W/m 19,3 km/h (3 Bft) 97,83 %
24.04.2021 22:14 9,5 C 8,9 C 6,1 C 62 % 1026,0 hPa 0,0 l/m 0 min 0 min 0 W/m 12,9 km/h (3 Bft) 97,87 %
24.04.2021 22:16 9,5 C 8,9 C 6,1 C 62 % 1026,0 hPa 0,0 l/m 0 min 0 min 0 W/m 12,9 km/h (3 Bft) 97,87 %
24.04.2021 22:18 9,5 C 8,3 C 6,1 C 62 % 1026,0 hPa 0,0 l/m 0 min 0 min 0 W/m 16,1 km/h (3 Bft) 97,87 %
24.04.2021 22:20 9,4 C 8,3 C 6,1 C 62 % 1026,1 hPa 0,0 l/m 0 min 0 min 0 W/m 12,9 km/h (3 Bft) 95,74 %
24.04.2021 22:22 9,4 C 8,3 C 6,1 C 62 % 1026,1 hPa 0,0 l/m 0 min 0 min 0 W/m 12,9 km/h (3 Bft) 97,87 %
24.04.2021 22:24 9,4 C 8,3 C 6,1 C 62 % 1026,0 hPa 0,0 l/m 0 min 0 min 0 W/m 19,3 km/h (3 Bft) 97,83 %
24.04.2021 22:26 9,3 C 8,3 C 6,1 C 62 % 1026,1 hPa 0,0 l/m 0 min 0 min 0 W/m 6,4 km/h (2 Bft) 97,87 %
24.04.2021 22:28 9,3 C 8,3 C 6,1 C 62 % 1026,1 hPa 0,0 l/m 0 min 0 min 0 W/m 19,3 km/h (3 Bft) 95,74 %
24.04.2021 22:30 9,3 C 8,3 C 6,1 C 62 % 1026,0 hPa 0,0 l/m 0 min 0 min 0 W/m 12,9 km/h (3 Bft) 93,62 %
24.04.2021 22:32 9,2 C 8,3 C 6,1 C 63 % 1026,1 hPa 0,0 l/m 0 min 0 min 0 W/m 6,4 km/h (2 Bft) 95,74 %
24.04.2021 22:34 9,2 C 8,3 C 6,1 C 63 % 1026,1 hPa 0,0 l/m 0 min 0 min 0 W/m 12,9 km/h (3 Bft) 95,74 %
24.04.2021 22:36 9,1 C 8,3 C 6,1 C 63 % 1026,1 hPa 0,0 l/m 0 min 0 min 0 W/m 12,9 km/h (3 Bft) 95,65 %
24.04.2021 22:38 9,1 C 8,3 C 5,6 C 63 % 1026,1 hPa 0,0 l/m 0 min 0 min 0 W/m 12,9 km/h (3 Bft) 95,74 %
24.04.2021 22:40 9,1 C 8,3 C 5,6 C 63 % 1026,1 hPa 0,0 l/m 0 min 0 min 0 W/m 16,1 km/h (3 Bft) 95,74 %
24.04.2021 22:42 9,0 C 8,3 C 5,6 C 63 % 1026,1 hPa 0,0 l/m 0 min 0 min 0 W/m 12,9 km/h (3 Bft) 95,74 %
24.04.2021 22:44 9,0 C 8,3 C 5,6 C 63 % 1026,1 hPa 0,0 l/m 0 min 0 min 0 W/m 38,6 km/h (5 Bft) 95,74 %
24.04.2021 22:46 9,0 C 8,3 C 5,6 C 63 % 1026,1 hPa 0,0 l/m 0 min 0 min 0 W/m 12,9 km/h (3 Bft) 95,65 %
24.04.2021 22:48 8,9 C 8,3 C 5,6 C 63 % 1026,1 hPa 0,0 l/m 0 min 0 min 0 W/m 12,9 km/h (3 Bft) 93,62 %
24.04.2021 22:50 8,9 C 8,3 C 5,6 C 63 % 1026,1 hPa 0,0 l/m 0 min 0 min 0 W/m 12,9 km/h (3 Bft) 95,74 %
24.04.2021 22:52 8,9 C 7,8 C 5,6 C 63 % 1026,1 hPa 0,0 l/m 0 min 0 min 0 W/m 12,9 km/h (3 Bft) 93,62 %
24.04.2021 22:54 8,8 C 7,8 C 5,6 C 63 % 1026,1 hPa 0,0 l/m 0 min 0 min 0 W/m 12,9 km/h (3 Bft) 95,74 %
24.04.2021 22:56 8,8 C 7,8 C 5,6 C 64 % 1026,1 hPa 0,0 l/m 0 min 0 min 0 W/m 12,9 km/h (3 Bft) 91,49 %
24.04.2021 22:58 8,8 C 7,8 C 5,6 C 64 % 1026,1 hPa 0,0 l/m 0 min 0 min 0 W/m 19,3 km/h (3 Bft) 95,74 %
24.04.2021 23:00 8,7 C 7,8 C 5,6 C 64 % 1026,2 hPa 0,0 l/m 0 min 0 min 0 W/m 22,5 km/h (4 Bft) 95,65 %
24.04.2021 23:02 8,7 C 7,8 C 5,6 C 64 % 1026,1 hPa 0,0 l/m 0 min 0 min 0 W/m 19,3 km/h (3 Bft) 95,74 %
24.04.2021 23:04 8,6 C 7,8 C 5,6 C 64 % 1026,1 hPa 0,0 l/m 0 min 0 min 0 W/m 16,1 km/h (3 Bft) 95,74 %
24.04.2021 23:06 8,6 C 7,8 C 5,0 C 64 % 1026,1 hPa 0,0 l/m 0 min 0 min 0 W/m 12,9 km/h (3 Bft) 93,62 %
24.04.2021 23:08 8,5 C 7,8 C 5,0 C 64 % 1026,2 hPa 0,0 l/m 0 min 0 min 0 W/m 6,4 km/h (2 Bft) 95,74 %
24.04.2021 23:10 8,5 C 7,8 C 5,0 C 64 % 1026,2 hPa 0,0 l/m 0 min 0 min 0 W/m 6,4 km/h (2 Bft) 95,65 %
24.04.2021 23:12 8,5 C 7,8 C 5,0 C 64 % 1026,2 hPa 0,0 l/m 0 min 0 min 0 W/m 16,1 km/h (3 Bft) 95,74 %
24.04.2021 23:14 8,4 C 7,2 C 5,0 C 65 % 1026,2 hPa 0,0 l/m 0 min 0 min 0 W/m 12,9 km/h (3 Bft) 97,87 %
24.04.2021 23:16 8,4 C 7,2 C 5,0 C 65 % 1026,2 hPa 0,0 l/m 0 min 0 min 0 W/m 19,3 km/h (3 Bft) 93,62 %
24.04.2021 23:18 8,3 C 7,2 C 5,0 C 65 % 1026,2 hPa 0,0 l/m 0 min 0 min 0 W/m 16,1 km/h (3 Bft) 97,87 %
24.04.2021 23:20 8,3 C 7,2 C 5,0 C 65 % 1026,2 hPa 0,0 l/m 0 min 0 min 0 W/m 12,9 km/h (3 Bft) 97,87 %
24.04.2021 23:22 8,2 C 7,2 C 5,0 C 65 % 1026,2 hPa 0,0 l/m 0 min 0 min 0 W/m 12,9 km/h (3 Bft) 100,00 %
24.04.2021 23:24 8,1 C 7,2 C 5,0 C 65 % 1026,2 hPa 0,0 l/m 0 min 0 min 0 W/m 16,1 km/h (3 Bft) 97,87 %
24.04.2021 23:26 8,1 C 7,2 C 4,5 C 66 % 1026,3 hPa 0,0 l/m 0 min 0 min 0 W/m 16,1 km/h (3 Bft) 96,15 %
24.04.2021 23:28 8,0 C 7,2 C 4,5 C 66 % 1026,3 hPa 0,0 l/m 0 min 0 min 0 W/m 16,1 km/h (3 Bft) 95,74 %
24.04.2021 23:30 8,0 C 7,2 C 4,5 C 66 % 1026,3 hPa 0,0 l/m 0 min 0 min 0 W/m 16,1 km/h (3 Bft) 100,00 %
24.04.2021 23:32 8,0 C 7,2 C 4,5 C 66 % 1026,3 hPa 0,0 l/m 0 min 0 min 0 W/m 16,1 km/h (3 Bft) 97,87 %
24.04.2021 23:34 7,9 C 7,2 C 4,5 C 66 % 1026,4 hPa 0,0 l/m 0 min 0 min 0 W/m 16,1 km/h (3 Bft) 97,87 %
24.04.2021 23:36 7,9 C 7,2 C 4,5 C 66 % 1026,3 hPa 0,0 l/m 0 min 0 min 0 W/m 16,1 km/h (3 Bft) 95,74 %
24.04.2021 23:38 7,9 C 7,2 C 4,5 C 66 % 1026,3 hPa 0,0 l/m 0 min 0 min 0 W/m 19,3 km/h (3 Bft) 100,00 %
24.04.2021 23:40 7,8 C 7,2 C 4,5 C 66 % 1026,3 hPa 0,0 l/m 0 min 0 min 0 W/m 19,3 km/h (3 Bft) 100,00 %
24.04.2021 23:42 7,8 C 6,7 C 4,5 C 67 % 1026,3 hPa 0,0 l/m 0 min 0 min 0 W/m 16,1 km/h (3 Bft) 100,00 %
24.04.2021 23:44 7,8 C 6,7 C 4,5 C 67 % 1026,3 hPa 0,0 l/m 0 min 0 min 0 W/m 25,7 km/h (4 Bft) 100,00 %
24.04.2021 23:46 7,7 C 6,7 C 4,5 C 67 % 1026,3 hPa 0,0 l/m 0 min 0 min 0 W/m 22,5 km/h (4 Bft) 97,87 %
24.04.2021 23:48 7,6 C 6,7 C 4,5 C 67 % 1026,3 hPa 0,0 l/m 0 min 0 min 0 W/m 16,1 km/h (3 Bft) 100,00 %
24.04.2021 23:50 7,6 C 6,7 C 4,5 C 67 % 1026,3 hPa 0,0 l/m 0 min 0 min 0 W/m 12,9 km/h (3 Bft) 97,83 %
24.04.2021 23:52 7,6 C 6,7 C 4,5 C 67 % 1026,3 hPa 0,0 l/m 0 min 0 min 0 W/m 25,7 km/h (4 Bft) 95,74 %
24.04.2021 23:54 7,5 C 6,7 C 4,5 C 67 % 1026,3 hPa 0,0 l/m 0 min 0 min 0 W/m 16,1 km/h (3 Bft) 97,87 %
24.04.2021 23:56 7,5 C 6,7 C 4,5 C 68 % 1026,3 hPa 0,0 l/m 0 min 0 min 0 W/m 16,1 km/h (3 Bft) 93,62 %
24.04.2021 23:58 7,5 C 6,7 C 3,9 C 68 % 1026,3 hPa 0,0 l/m 0 min 0 min 0 W/m 9,7 km/h (2 Bft) 95,74 %
_ Min-Zeit 06:42 05:04 06:32 16:30 18:22 - - - - 00:22 00:02
Minimum _ 3,7 C 2,8 C 0,6 C 48 % 1025,2 hPa - - - - 0,0 km/h (0 Bft) 7,14 %
_ Max-Zeit 16:28 16:22 13:28 07:44 07:46 00:00 12:08 00:00 13:44 16:48 00:00
Maximum _ 16,6 C 25,0 C 20,0 C 86 % 1028,4 hPa 0,0 l/m 4 min 0 min 983 W/m 41,8 km/h
NW (6 Bft)
100,00 %
Durchschnitt _ 9,7 C 11,2 C 7,7 C 66 % 1027,1 hPa #0,0 l/m #10:06 h #0 min. 461 W/m 12,4 km/h (3 Bft) 97,19 %
© 2021 W. Hausmann